Time,TemperatureF,DewpointF,PressureIn,WindDirection,WindDirectionDegrees,WindSpeedMPH,WindSpeedGustMPH,Humidity,HourlyPrecipIn,Conditions,Clouds,dailyrainin,SoftwareType,DateUTC
2013-04-24 00:00:00,73.0,70.9,29.90,ESE,107,3.0,4.0,93,0.00,,---,0.00,VWS V14.01,2013-04-24 05:00:00,
2013-04-24 00:01:00,73.0,70.9,29.90,ESE,115,3.0,4.0,93,0.00,,---,0.00,VWS V14.01,2013-04-24 05:01:00,
2013-04-24 00:02:00,73.1,71.0,29.90,ESE,118,3.0,5.0,93,0.00,,---,0.00,VWS V14.01,2013-04-24 05:02:00,
2013-04-24 00:03:00,73.1,71.0,29.90,ESE,123,0.0,4.0,93,0.00,,---,0.00,VWS V14.01,2013-04-24 05:03:00,
2013-04-24 00:04:00,73.1,71.0,29.90,ESE,113,4.0,4.0,93,0.00,,---,0.00,VWS V14.01,2013-04-24 05:04:00,
2013-04-24 00:05:00,73.1,71.0,29.91,East,100,2.0,4.0,93,0.00,,---,0.00,VWS V14.01,2013-04-24 05:05:00,
2013-04-24 00:06:00,73.1,71.0,29.91,East,100,2.0,4.0,93,0.00,,---,0.00,VWS V14.01,2013-04-24 05:06:00,
2013-04-24 00:07:00,73.1,71.0,29.91,ESE,110,1.0,4.0,93,0.00,,---,0.00,VWS V14.01,2013-04-24 05:07:00,
2013-04-24 00:08:00,73.1,71.0,29.91,ESE,110,0.0,1.0,93,0.00,,---,0.00,VWS V14.01,2013-04-24 05:08:00,
2013-04-24 00:09:00,73.1,71.0,29.91,ESE,110,0.0,0.0,93,0.00,,---,0.00,VWS V14.01,2013-04-24 05:09:00,
2013-04-24 00:10:00,73.1,71.0,29.91,ESE,110,0.0,1.0,93,0.00,,---,0.00,VWS V14.01,2013-04-24 05:10:00,
2013-04-24 00:11:00,73.1,71.0,29.91,ESE,110,0.0,1.0,93,0.00,,---,0.00,VWS V14.01,2013-04-24 05:11:00,
2013-04-24 00:12:00,73.1,71.0,29.91,ESE,107,0.0,1.0,93,0.00,,---,0.00,VWS V14.01,2013-04-24 05:12:00,
2013-04-24 00:13:00,73.1,71.0,29.91,ESE,107,0.0,0.0,93,0.00,,---,0.00,VWS V14.01,2013-04-24 05:13:00,
2013-04-24 00:14:00,73.1,71.0,29.91,East,88,2.0,2.0,93,0.00,,---,0.00,VWS V14.01,2013-04-24 05:14:00,
2013-04-24 00:15:00,73.1,71.0,29.91,East,82,3.0,3.0,93,0.00,,---,0.00,VWS V14.01,2013-04-24 05:15:00,
2013-04-24 00:16:00,73.1,71.0,29.91,East,86,2.0,2.0,93,0.00,,---,0.00,VWS V14.01,2013-04-24 05:16:00,
2013-04-24 00:17:00,73.1,71.0,29.91,East,83,0.0,1.0,93,0.00,,---,0.00,VWS V14.01,2013-04-24 05:17:00,
2013-04-24 00:18:00,73.1,71.0,29.92,East,83,0.0,0.0,93,0.00,,---,0.00,VWS V14.01,2013-04-24 05:18:00,
2013-04-24 00:19:00,73.1,71.0,29.92,East,83,2.0,2.0,93,0.00,,---,0.00,VWS V14.01,2013-04-24 05:19:00,
2013-04-24 00:20:00,73.1,71.0,29.92,East,83,0.0,2.0,93,0.00,,---,0.00,VWS V14.01,2013-04-24 05:20:00,
2013-04-24 00:21:00,73.1,71.0,29.92,East,83,0.0,2.0,93,0.00,,---,0.00,VWS V14.01,2013-04-24 05:21:00,
2013-04-24 00:22:00,73.1,71.0,29.92,NE,55,0.0,2.0,93,0.00,,---,0.00,VWS V14.01,2013-04-24 05:22:00,
2013-04-24 00:23:00,73.1,71.0,29.92,NE,55,0.0,1.0,93,0.00,,---,0.00,VWS V14.01,2013-04-24 05:23:00,
2013-04-24 00:24:00,73.1,71.0,29.92,NE,55,0.0,1.0,93,0.00,,---,0.00,VWS V14.01,2013-04-24 05:24:00,
2013-04-24 00:25:00,73.1,71.0,29.92,NE,55,0.0,0.0,93,0.00,,---,0.00,VWS V14.01,2013-04-24 05:25:00,
2013-04-24 00:26:00,73.1,71.0,29.92,NE,55,0.0,0.0,93,0.00,,---,0.00,VWS V14.01,2013-04-24 05:26:00,
2013-04-24 00:27:00,73.1,71.0,29.92,ENE,66,0.0,3.0,93,0.00,,---,0.00,VWS V14.01,2013-04-24 05:27:00,
2013-04-24 00:28:00,73.1,71.0,29.92,ENE,78,0.0,4.0,93,0.00,,---,0.00,VWS V14.01,2013-04-24 05:28:00,
2013-04-24 00:29:00,73.1,71.0,29.92,ENE,78,0.0,1.0,93,0.00,,---,0.00,VWS V14.01,2013-04-24 05:29:00,
2013-04-24 00:30:00,73.1,71.0,29.92,ENE,78,0.0,0.0,93,0.00,,---,0.00,VWS V14.01,2013-04-24 05:30:00,
2013-04-24 00:31:00,73.1,71.0,29.92,ENE,78,0.0,0.0,93,0.00,,---,0.00,VWS V14.01,2013-04-24 05:31:00,
2013-04-24 00:32:00,73.1,71.0,29.92,NE,44,0.0,3.0,93,0.00,,---,0.00,VWS V14.01,2013-04-24 05:32:00,
2013-04-24 00:33:00,73.1,71.0,29.92,East,90,3.0,3.0,93,0.00,,---,0.00,VWS V14.01,2013-04-24 05:33:00,
2013-04-24 00:34:00,73.1,71.0,29.92,East,87,2.0,5.0,93,0.00,,---,0.00,VWS V14.01,2013-04-24 05:34:00,
2013-04-24 00:35:00,73.2,71.1,29.92,East,98,1.0,5.0,93,0.00,,---,0.00,VWS V14.01,2013-04-24 05:35:00,
2013-04-24 00:36:00,73.2,71.1,29.92,East,98,2.0,5.0,93,0.00,,---,0.00,VWS V14.01,2013-04-24 05:36:00,
2013-04-24 00:37:00,73.2,71.1,29.92,East,83,0.0,2.0,93,0.00,,---,0.00,VWS V14.01,2013-04-24 05:37:00,
2013-04-24 00:38:00,73.2,71.1,29.92,East,84,0.0,1.0,93,0.00,,---,0.00,VWS V14.01,2013-04-24 05:38:00,
2013-04-24 00:39:00,73.2,71.1,29.92,East,84,0.0,0.0,93,0.00,,---,0.00,VWS V14.01,2013-04-24 05:39:00,
2013-04-24 00:40:00,73.2,71.1,29.92,East,84,0.0,0.0,93,0.00,,---,0.00,VWS V14.01,2013-04-24 05:40:00,
2013-04-24 00:41:00,73.2,71.1,29.92,East,83,0.0,0.0,93,0.00,,---,0.00,VWS V14.01,2013-04-24 05:41:00,
2013-04-24 00:42:00,73.3,71.2,29.92,East,84,0.0,1.0,93,0.00,,---,0.00,VWS V14.01,2013-04-24 05:42:00,
2013-04-24 00:43:00,73.3,71.2,29.92,ESE,111,1.0,4.0,93,0.00,,---,0.00,VWS V14.01,2013-04-24 05:43:00,
2013-04-24 00:44:00,73.2,71.1,29.92,ESE,109,4.0,5.0,93,0.00,,---,0.00,VWS V14.01,2013-04-24 05:44:00,
2013-04-24 00:45:00,73.2,71.1,29.92,ESE,107,3.0,5.0,93,0.00,,---,0.00,VWS V14.01,2013-04-24 05:45:00,
2013-04-24 00:46:00,73.2,71.1,29.92,ESE,107,4.0,5.0,93,0.00,,---,0.00,VWS V14.01,2013-04-24 05:46:00,
2013-04-24 00:47:00,73.3,71.2,29.92,ESE,107,0.0,3.0,93,0.00,,---,0.00,VWS V14.01,2013-04-24 05:47:00,
2013-04-24 00:48:00,73.3,71.2,29.92,ESE,105,0.0,1.0,93,0.00,,---,0.00,VWS V14.01,2013-04-24 05:48:00,
2013-04-24 00:49:00,73.3,71.2,29.92,East,95,3.0,3.0,93,0.00,,---,0.00,VWS V14.01,2013-04-24 05:49:00,
2013-04-24 00:50:00,73.3,71.2,29.92,ESE,105,5.0,6.0,93,0.00,,---,0.00,VWS V14.01,2013-04-24 05:50:00,
2013-04-24 00:51:00,73.3,71.2,29.92,ESE,107,4.0,5.0,93,0.00,,---,0.00,VWS V14.01,2013-04-24 05:51:00,
2013-04-24 00:52:00,73.3,71.2,29.92,ESE,102,2.0,2.0,93,0.00,,---,0.00,VWS V14.01,2013-04-24 05:52:00,
2013-04-24 00:53:00,73.3,71.2,29.92,East,93,0.0,2.0,93,0.00,,---,0.00,VWS V14.01,2013-04-24 05:53:00,
2013-04-24 00:54:00,73.3,71.2,29.92,East,94,1.0,2.0,93,0.00,,---,0.00,VWS V14.01,2013-04-24 05:54:00,
2013-04-24 00:55:00,73.3,71.2,29.92,ENE,74,1.0,5.0,93,0.00,,---,0.00,VWS V14.01,2013-04-24 05:55:00,
2013-04-24 00:56:00,73.3,71.2,29.92,ENE,76,0.0,5.0,93,0.00,,---,0.00,VWS V14.01,2013-04-24 05:56:00,
2013-04-24 00:57:00,73.4,71.3,29.92,East,82,2.0,2.0,93,0.00,,---,0.00,VWS V14.01,2013-04-24 05:57:00,
2013-04-24 00:58:00,73.3,71.2,29.92,East,84,1.0,3.0,93,0.00,,---,0.00,VWS V14.01,2013-04-24 05:58:00,
2013-04-24 00:59:00,73.3,71.2,29.92,East,101,2.0,3.0,93,0.00,,---,0.00,VWS V14.01,2013-04-24 05:59:00,
2013-04-24 01:00:00,73.3,71.2,29.92,ESE,110,1.0,2.0,93,0.00,,---,0.00,VWS V14.01,2013-04-24 06:00:00,
2013-04-24 01:01:00,73.3,71.2,29.92,ESE,110,1.0,2.0,93,0.00,,---,0.00,VWS V14.01,2013-04-24 06:01:00,
2013-04-24 01:02:00,73.3,71.2,29.92,ESE,113,4.0,6.0,93,0.00,,---,0.00,VWS V14.01,2013-04-24 06:02:00,
2013-04-24 01:03:00,73.3,71.2,29.92,East,96,0.0,5.0,93,0.00,,---,0.00,VWS V14.01,2013-04-24 06:03:00,
2013-04-24 01:04:00,73.3,71.2,29.92,ESE,121,0.0,1.0,93,0.00,,---,0.00,VWS V14.01,2013-04-24 06:04:00,
2013-04-24 01:05:00,73.3,71.2,29.92,ESE,121,0.0,0.0,93,0.00,,---,0.00,VWS V14.01,2013-04-24 06:05:00,
2013-04-24 01:06:00,73.3,71.2,29.92,ESE,121,0.0,0.0,93,0.00,,---,0.00,VWS V14.01,2013-04-24 06:06:00,
2013-04-24 01:07:00,73.3,71.2,29.92,East,92,0.0,1.0,93,0.00,,---,0.00,VWS V14.01,2013-04-24 06:07:00,
2013-04-24 01:08:00,73.3,71.2,29.92,East,92,0.0,1.0,93,0.00,,---,0.00,VWS V14.01,2013-04-24 06:08:00,
2013-04-24 01:09:00,73.3,71.2,29.92,East,92,0.0,1.0,93,0.00,,---,0.00,VWS V14.01,2013-04-24 06:09:00,
2013-04-24 01:10:00,73.3,71.2,29.92,ENE,57,0.0,4.0,93,0.00,,---,0.00,VWS V14.01,2013-04-24 06:10:00,
2013-04-24 01:11:00,73.3,71.2,29.92,ENE,57,0.0,4.0,93,0.00,,---,0.00,VWS V14.01,2013-04-24 06:11:00,
2013-04-24 01:12:00,73.3,71.2,29.92,ENE,57,1.0,1.0,93,0.00,,---,0.00,VWS V14.01,2013-04-24 06:12:00,
2013-04-24 01:13:00,73.3,71.2,29.92,ENE,58,2.0,2.0,93,0.00,,---,0.00,VWS V14.01,2013-04-24 06:13:00,
2013-04-24 01:14:00,73.3,71.2,29.92,East,79,0.0,4.0,93,0.00,,---,0.00,VWS V14.01,2013-04-24 06:14:00,
2013-04-24 01:15:00,73.3,71.2,29.92,ESE,103,1.0,2.0,93,0.00,,---,0.00,VWS V14.01,2013-04-24 06:15:00,
2013-04-24 01:16:00,73.3,71.2,29.92,ESE,103,0.0,2.0,93,0.00,,---,0.00,VWS V14.01,2013-04-24 06:16:00,
2013-04-24 01:17:00,73.3,71.2,29.92,ESE,102,0.0,0.0,93,0.00,,---,0.00,VWS V14.01,2013-04-24 06:17:00,
2013-04-24 01:18:00,73.3,71.2,29.92,East,90,1.0,3.0,93,0.00,,---,0.00,VWS V14.01,2013-04-24 06:18:00,
2013-04-24 01:19:00,73.4,71.3,29.92,East,90,0.0,1.0,93,0.00,,---,0.00,VWS V14.01,2013-04-24 06:19:00,
2013-04-24 01:20:00,73.3,71.2,29.92,East,87,0.0,2.0,93,0.00,,---,0.00,VWS V14.01,2013-04-24 06:20:00,
2013-04-24 01:21:00,73.3,71.2,29.92,East,87,2.0,2.0,93,0.00,,---,0.00,VWS V14.01,2013-04-24 06:21:00,
2013-04-24 01:22:00,73.3,71.2,29.92,ENE,65,0.0,3.0,93,0.00,,---,0.00,VWS V14.01,2013-04-24 06:22:00,
2013-04-24 01:23:00,73.3,71.2,29.92,East,96,2.0,3.0,93,0.00,,---,0.00,VWS V14.01,2013-04-24 06:23:00,
2013-04-24 01:24:00,73.4,71.3,29.92,East,96,0.0,2.0,93,0.00,,---,0.00,VWS V14.01,2013-04-24 06:24:00,
2013-04-24 01:25:00,73.3,71.2,29.92,East,95,0.0,2.0,93,0.00,,---,0.00,VWS V14.01,2013-04-24 06:25:00,
2013-04-24 01:26:00,73.3,71.2,29.92,East,94,0.0,2.0,93,0.00,,---,0.00,VWS V14.01,2013-04-24 06:26:00,
2013-04-24 01:27:00,73.3,71.2,29.92,ENE,63,2.0,4.0,93,0.00,,---,0.00,VWS V14.01,2013-04-24 06:27:00,
2013-04-24 01:28:00,73.3,71.2,29.92,NE,54,0.0,3.0,93,0.00,,---,0.00,VWS V14.01,2013-04-24 06:28:00,
2013-04-24 01:29:00,73.3,71.2,29.92,ENE,64,4.0,4.0,93,0.00,,---,0.00,VWS V14.01,2013-04-24 06:29:00,
2013-04-24 01:30:00,73.3,71.2,29.92,ENE,64,0.0,4.0,93,0.00,,---,0.00,VWS V14.01,2013-04-24 06:30:00,
2013-04-24 01:31:00,73.3,71.2,29.92,ENE,64,0.0,4.0,93,0.00,,---,0.00,VWS V14.01,2013-04-24 06:31:00,
2013-04-24 01:32:00,73.3,71.2,29.92,ENE,63,3.0,3.0,93,0.00,,---,0.00,VWS V14.01,2013-04-24 06:32:00,
2013-04-24 01:33:00,73.3,71.2,29.92,ENE,67,2.0,3.0,93,0.00,,---,0.00,VWS V14.01,2013-04-24 06:33:00,
2013-04-24 01:34:00,73.3,71.2,29.92,ENE,67,0.0,3.0,93,0.00,,---,0.00,VWS V14.01,2013-04-24 06:34:00,
2013-04-24 01:35:00,73.3,71.2,29.92,ENE,66,0.0,3.0,93,0.00,,---,0.00,VWS V14.01,2013-04-24 06:35:00,
2013-04-24 01:36:00,73.3,71.2,29.92,ENE,65,1.0,3.0,93,0.00,,---,0.00,VWS V14.01,2013-04-24 06:36:00,
2013-04-24 01:37:00,73.3,71.2,29.92,East,89,0.0,2.0,93,0.00,,---,0.00,VWS V14.01,2013-04-24 06:37:00,
2013-04-24 01:38:00,73.3,71.2,29.92,East,79,2.0,3.0,93,0.00,,---,0.00,VWS V14.01,2013-04-24 06:38:00,
2013-04-24 01:39:00,73.3,71.2,29.92,ENE,78,3.0,3.0,93,0.00,,---,0.00,VWS V14.01,2013-04-24 06:39:00,
2013-04-24 01:40:00,73.3,71.2,29.92,ENE,68,0.0,3.0,93,0.00,,---,0.00,VWS V14.01,2013-04-24 06:40:00,
2013-04-24 01:41:00,73.3,71.2,29.92,ENE,68,3.0,3.0,93,0.00,,---,0.00,VWS V14.01,2013-04-24 06:41:00,
2013-04-24 01:42:00,73.3,71.2,29.92,East,100,1.0,2.0,93,0.00,,---,0.00,VWS V14.01,2013-04-24 06:42:00,
2013-04-24 01:43:00,73.3,71.2,29.92,ENE,74,0.0,3.0,93,0.00,,---,0.00,VWS V14.01,2013-04-24 06:43:00,
2013-04-24 01:44:00,73.3,71.2,29.92,East,100,2.0,3.0,93,0.00,,---,0.00,VWS V14.01,2013-04-24 06:44:00,
2013-04-24 01:45:00,73.3,71.2,29.92,East,98,1.0,3.0,93,0.00,,---,0.00,VWS V14.01,2013-04-24 06:45:00,
2013-04-24 01:46:00,73.3,71.2,29.92,East,98,1.0,3.0,93,0.00,,---,0.00,VWS V14.01,2013-04-24 06:46:00,
2013-04-24 01:47:00,73.3,71.2,29.92,SE,129,1.0,2.0,93,0.00,,---,0.00,VWS V14.01,2013-04-24 06:47:00,
2013-04-24 01:48:00,73.3,71.2,29.92,ESE,119,2.0,2.0,93,0.00,,---,0.00,VWS V14.01,2013-04-24 06:48:00,
2013-04-24 01:49:00,73.3,71.2,29.92,East,97,1.0,2.0,93,0.00,,---,0.00,VWS V14.01,2013-04-24 06:49:00,
2013-04-24 01:50:00,73.3,71.2,29.92,East,94,0.0,2.0,93,0.00,,---,0.00,VWS V14.01,2013-04-24 06:50:00,
2013-04-24 01:51:00,73.3,71.2,29.92,East,94,0.0,2.0,93,0.00,,---,0.00,VWS V14.01,2013-04-24 06:51:00,
2013-04-24 01:52:00,73.3,71.2,29.92,East,84,0.0,1.0,93,0.00,,---,0.00,VWS V14.01,2013-04-24 06:52:00,
2013-04-24 01:53:00,73.3,71.2,29.92,East,82,0.0,1.0,93,0.00,,---,0.00,VWS V14.01,2013-04-24 06:53:00,
2013-04-24 01:54:00,73.3,71.2,29.92,East,82,0.0,0.0,93,0.00,,---,0.00,VWS V14.01,2013-04-24 06:54:00,
2013-04-24 01:55:00,73.3,71.2,29.92,East,82,0.0,1.0,93,0.00,,---,0.00,VWS V14.01,2013-04-24 06:55:00,
2013-04-24 01:56:00,73.3,71.2,29.92,East,82,0.0,1.0,93,0.00,,---,0.00,VWS V14.01,2013-04-24 06:56:00,
2013-04-24 01:57:00,73.3,71.2,29.92,East,82,1.0,1.0,93,0.00,,---,0.00,VWS V14.01,2013-04-24 06:57:00,
2013-04-24 01:58:00,73.3,71.2,29.92,East,84,0.0,1.0,93,0.00,,---,0.00,VWS V14.01,2013-04-24 06:58:00,
2013-04-24 01:59:00,73.3,71.2,29.92,East,84,0.0,0.0,93,0.00,,---,0.00,VWS V14.01,2013-04-24 06:59:00,
2013-04-24 02:00:00,73.3,71.2,29.92,East,86,0.0,2.0,93,0.00,,---,0.00,VWS V14.01,2013-04-24 07:00:00,
2013-04-24 02:01:00,73.3,71.2,29.92,East,84,1.0,2.0,93,0.00,,---,0.00,VWS V14.01,2013-04-24 07:01:00,
2013-04-24 02:02:00,73.3,71.2,29.92,East,101,1.0,3.0,93,0.00,,---,0.00,VWS V14.01,2013-04-24 07:02:00,
2013-04-24 02:03:00,73.3,71.2,29.92,East,101,0.0,2.0,93,0.00,,---,0.00,VWS V14.01,2013-04-24 07:03:00,
2013-04-24 02:04:00,73.3,71.2,29.92,ENE,75,2.0,2.0,93,0.00,,---,0.00,VWS V14.01,2013-04-24 07:04:00,
2013-04-24 02:05:00,73.3,71.2,29.92,ESE,106,2.0,2.0,93,0.00,,---,0.00,VWS V14.01,2013-04-24 07:05:00,
2013-04-24 02:06:00,73.3,71.2,29.92,East,79,1.0,2.0,93,0.00,,---,0.00,VWS V14.01,2013-04-24 07:06:00,
2013-04-24 02:07:00,73.3,71.2,29.92,East,100,3.0,5.0,93,0.00,,---,0.00,VWS V14.01,2013-04-24 07:07:00,
2013-04-24 02:08:00,73.3,71.2,29.92,ESE,106,6.0,6.0,93,0.00,,---,0.00,VWS V14.01,2013-04-24 07:08:00,
2013-04-24 02:09:00,73.3,71.2,29.92,ESE,102,0.0,6.0,93,0.00,,---,0.00,VWS V14.01,2013-04-24 07:09:00,
2013-04-24 02:10:00,73.3,71.2,29.92,East,86,2.0,3.0,93,0.00,,---,0.00,VWS V14.01,2013-04-24 07:10:00,
2013-04-24 02:11:00,73.3,71.2,29.92,East,94,3.0,3.0,93,0.00,,---,0.00,VWS V14.01,2013-04-24 07:11:00,
2013-04-24 02:12:00,73.3,71.2,29.92,East,99,3.0,5.0,93,0.00,,---,0.00,VWS V14.01,2013-04-24 07:12:00,
2013-04-24 02:13:00,73.3,71.2,29.92,ESE,102,0.0,4.0,93,0.00,,---,0.00,VWS V14.01,2013-04-24 07:13:00,
2013-04-24 02:14:00,73.2,71.1,29.92,East,96,1.0,2.0,93,0.00,,---,0.00,VWS V14.01,2013-04-24 07:14:00,
2013-04-24 02:15:00,73.3,71.2,29.92,East,94,0.0,3.0,93,0.00,,---,0.00,VWS V14.01,2013-04-24 07:15:00,
2013-04-24 02:16:00,73.3,71.2,29.92,East,98,2.0,3.0,93,0.00,,---,0.00,VWS V14.01,2013-04-24 07:16:00,
2013-04-24 02:17:00,73.3,71.2,29.92,ENE,71,0.0,3.0,93,0.00,,---,0.00,VWS V14.01,2013-04-24 07:17:00,
2013-04-24 02:18:00,73.3,71.2,29.92,ENE,67,2.0,4.0,93,0.00,,---,0.00,VWS V14.01,2013-04-24 07:18:00,
2013-04-24 02:19:00,73.2,71.1,29.92,East,90,0.0,5.0,93,0.00,,---,0.00,VWS V14.01,2013-04-24 07:19:00,
2013-04-24 02:20:00,73.2,71.1,29.92,East,90,0.0,2.0,93,0.00,,---,0.00,VWS V14.01,2013-04-24 07:20:00,
2013-04-24 02:21:00,73.2,71.1,29.92,East,90,0.0,2.0,93,0.00,,---,0.00,VWS V14.01,2013-04-24 07:21:00,
2013-04-24 02:22:00,73.2,71.1,29.92,East,95,0.0,3.0,93,0.00,,---,0.00,VWS V14.01,2013-04-24 07:22:00,
2013-04-24 02:23:00,73.2,71.1,29.92,East,84,0.0,3.0,93,0.00,,---,0.00,VWS V14.01,2013-04-24 07:23:00,
2013-04-24 02:24:00,73.2,71.1,29.92,East,90,0.0,3.0,93,0.00,,---,0.00,VWS V14.01,2013-04-24 07:24:00,
2013-04-24 02:25:00,73.2,71.1,29.92,East,86,0.0,1.0,93,0.00,,---,0.00,VWS V14.01,2013-04-24 07:25:00,
2013-04-24 02:26:00,73.2,71.1,29.92,East,87,0.0,1.0,93,0.00,,---,0.00,VWS V14.01,2013-04-24 07:26:00,
2013-04-24 02:27:00,73.2,71.1,29.92,East,80,0.0,4.0,93,0.00,,---,0.00,VWS V14.01,2013-04-24 07:27:00,
2013-04-24 02:28:00,73.2,71.1,29.92,East,95,1.0,1.0,93,0.00,,---,0.00,VWS V14.01,2013-04-24 07:28:00,
2013-04-24 02:29:00,73.2,71.1,29.92,ESE,111,3.0,3.0,93,0.00,,---,0.00,VWS V14.01,2013-04-24 07:29:00,
2013-04-24 02:30:00,73.2,71.1,29.92,East,87,2.0,3.0,93,0.00,,---,0.00,VWS V14.01,2013-04-24 07:30:00,
2013-04-24 02:31:00,73.2,71.1,29.92,ESE,108,0.0,3.0,93,0.00,,---,0.00,VWS V14.01,2013-04-24 07:31:00,
2013-04-24 02:32:00,73.2,71.1,29.92,ENE,76,1.0,4.0,93,0.00,,---,0.00,VWS V14.01,2013-04-24 07:32:00,
2013-04-24 02:33:00,73.2,71.1,29.92,ESE,110,0.0,2.0,93,0.00,,---,0.00,VWS V14.01,2013-04-24 07:33:00,
2013-04-24 02:34:00,73.2,71.1,29.92,ESE,105,1.0,2.0,93,0.00,,---,0.00,VWS V14.01,2013-04-24 07:34:00,
2013-04-24 02:35:00,73.2,71.1,29.92,ESE,123,0.0,3.0,93,0.00,,---,0.00,VWS V14.01,2013-04-24 07:35:00,
2013-04-24 02:36:00,73.2,71.1,29.92,ESE,123,2.0,3.0,93,0.00,,---,0.00,VWS V14.01,2013-04-24 07:36:00,
2013-04-24 02:37:00,73.2,71.1,29.92,ESE,106,5.0,5.0,93,0.00,,---,0.00,VWS V14.01,2013-04-24 07:37:00,
2013-04-24 02:38:00,73.2,71.1,29.92,ESE,115,2.0,5.0,93,0.00,,---,0.00,VWS V14.01,2013-04-24 07:38:00,
2013-04-24 02:39:00,73.2,71.1,29.92,ESE,105,3.0,3.0,93,0.00,,---,0.00,VWS V14.01,2013-04-24 07:39:00,
2013-04-24 02:40:00,73.2,71.1,29.92,East,101,2.0,4.0,93,0.00,,---,0.00,VWS V14.01,2013-04-24 07:40:00,
2013-04-24 02:41:00,73.2,71.1,29.92,East,95,3.0,4.0,93,0.00,,---,0.00,VWS V14.01,2013-04-24 07:41:00,
2013-04-24 02:42:00,73.2,71.1,29.92,ENE,72,3.0,3.0,93,0.00,,---,0.00,VWS V14.01,2013-04-24 07:42:00,
2013-04-24 02:43:00,73.2,71.1,29.92,East,79,0.0,5.0,93,0.00,,---,0.00,VWS V14.01,2013-04-24 07:43:00,
2013-04-24 02:44:00,73.2,71.1,29.92,ESE,104,1.0,4.0,93,0.00,,---,0.00,VWS V14.01,2013-04-24 07:44:00,
2013-04-24 02:45:00,73.2,71.1,29.92,East,97,1.0,3.0,93,0.00,,---,0.00,VWS V14.01,2013-04-24 07:45:00,
2013-04-24 02:46:00,73.2,71.1,29.92,East,101,0.0,2.0,93,0.00,,---,0.00,VWS V14.01,2013-04-24 07:46:00,
2013-04-24 02:47:00,73.2,71.1,29.92,ENE,67,2.0,3.0,93,0.00,,---,0.00,VWS V14.01,2013-04-24 07:47:00,
2013-04-24 02:48:00,73.1,71.0,29.92,ENE,78,1.0,2.0,93,0.00,,---,0.00,VWS V14.01,2013-04-24 07:48:00,
2013-04-24 02:49:00,73.1,71.0,29.92,ENE,72,2.0,4.0,93,0.00,,---,0.00,VWS V14.01,2013-04-24 07:49:00,
2013-04-24 02:50:00,73.2,71.1,29.92,ENE,74,0.0,2.0,93,0.00,,---,0.00,VWS V14.01,2013-04-24 07:50:00,
2013-04-24 02:51:00,73.2,71.1,29.92,ENE,75,0.0,2.0,93,0.00,,---,0.00,VWS V14.01,2013-04-24 07:51:00,
2013-04-24 02:52:00,73.1,71.0,29.92,ENE,72,1.0,4.0,93,0.00,,---,0.00,VWS V14.01,2013-04-24 07:52:00,
2013-04-24 02:53:00,73.1,71.0,29.92,ENE,78,3.0,3.0,93,0.00,,---,0.00,VWS V14.01,2013-04-24 07:53:00,
2013-04-24 02:54:00,73.1,71.0,29.92,NE,55,2.0,4.0,93,0.00,,---,0.00,VWS V14.01,2013-04-24 07:54:00,
2013-04-24 02:55:00,73.1,71.0,29.92,East,93,0.0,3.0,93,0.00,,---,0.00,VWS V14.01,2013-04-24 07:55:00,
2013-04-24 02:56:00,73.1,71.0,29.92,East,94,1.0,3.0,93,0.00,,---,0.00,VWS V14.01,2013-04-24 07:56:00,
2013-04-24 02:57:00,73.1,71.0,29.92,ENE,57,5.0,5.0,93,0.00,,---,0.00,VWS V14.01,2013-04-24 07:57:00,
2013-04-24 02:58:00,73.1,71.0,29.92,ESE,109,3.0,7.0,93,0.00,,---,0.00,VWS V14.01,2013-04-24 07:58:00,
2013-04-24 02:59:00,73.1,71.0,29.92,NE,44,2.0,6.0,93,0.00,,---,0.00,VWS V14.01,2013-04-24 07:59:00,
2013-04-24 03:00:00,73.1,71.0,29.92,NE,52,4.0,5.0,93,0.00,,---,0.00,VWS V14.01,2013-04-24 08:00:00,
2013-04-24 03:01:00,73.1,71.0,29.92,NE,53,3.0,5.0,93,0.00,,---,0.00,VWS V14.01,2013-04-24 08:01:00,
2013-04-24 03:02:00,73.1,71.0,29.92,ENE,69,2.0,6.0,93,0.00,,---,0.00,VWS V14.01,2013-04-24 08:02:00,
2013-04-24 03:03:00,73.1,71.0,29.92,NE,51,2.0,5.0,93,0.00,,---,0.00,VWS V14.01,2013-04-24 08:03:00,
2013-04-24 03:04:00,73.1,71.0,29.92,East,91,2.0,6.0,93,0.00,,---,0.00,VWS V14.01,2013-04-24 08:04:00,
2013-04-24 03:05:00,73.1,71.0,29.92,ENE,64,3.0,5.0,93,0.00,,---,0.00,VWS V14.01,2013-04-24 08:05:00,
2013-04-24 03:06:00,73.1,71.0,29.92,ENE,63,3.0,5.0,93,0.00,,---,0.00,VWS V14.01,2013-04-24 08:06:00,
2013-04-24 03:07:00,73.1,71.0,29.92,NE,44,0.0,3.0,93,0.00,,---,0.00,VWS V14.01,2013-04-24 08:07:00,
2013-04-24 03:08:00,73.1,71.0,29.92,NE,56,3.0,4.0,93,0.00,,---,0.00,VWS V14.01,2013-04-24 08:08:00,
2013-04-24 03:09:00,73.1,71.0,29.92,ENE,63,4.0,4.0,93,0.00,,---,0.00,VWS V14.01,2013-04-24 08:09:00,
2013-04-24 03:10:00,73.1,71.0,29.92,ENE,65,1.0,4.0,93,0.00,,---,0.00,VWS V14.01,2013-04-24 08:10:00,
2013-04-24 03:11:00,73.1,71.0,29.93,ENE,65,0.0,0.0,93,0.00,,---,0.00,VWS V14.01,2013-04-24 08:11:00,
2013-04-24 03:12:00,73.1,71.0,29.92,ENE,66,0.0,0.0,93,0.00,,---,0.00,VWS V14.01,2013-04-24 08:12:00,
2013-04-24 03:13:00,73.1,71.0,29.93,NE,34,7.0,7.0,93,0.00,,---,0.00,VWS V14.01,2013-04-24 08:13:00,
2013-04-24 03:14:00,73.0,70.9,29.93,North,9,5.0,10.0,93,0.00,,---,0.00,VWS V14.01,2013-04-24 08:14:00,
2013-04-24 03:15:00,72.8,70.7,29.93,North,5,7.0,12.0,93,0.00,,---,0.00,VWS V14.01,2013-04-24 08:15:00,
2013-04-24 03:16:00,71.8,68.1,29.93,NNE,26,9.0,14.0,88,0.00,,---,0.00,VWS V14.01,2013-04-24 08:16:00,
2013-04-24 03:17:00,71.1,67.0,29.94,North,360,5.0,9.0,87,0.00,,---,0.00,VWS V14.01,2013-04-24 08:17:00,
2013-04-24 03:18:00,70.7,66.3,29.94,North,0,5.0,10.0,86,0.00,,---,0.00,VWS V14.01,2013-04-24 08:18:00,
2013-04-24 03:19:00,70.2,65.5,29.94,NNE,22,4.0,10.0,85,0.00,,---,0.00,VWS V14.01,2013-04-24 08:19:00,
2013-04-24 03:20:00,69.7,65.0,29.94,NNE,22,7.0,18.0,85,0.00,,---,0.00,VWS V14.01,2013-04-24 08:20:00,
2013-04-24 03:21:00,69.2,64.2,29.94,North,0,9.0,16.0,84,0.00,,---,0.00,VWS V14.01,2013-04-24 08:21:00,
2013-04-24 03:22:00,68.8,63.4,29.94,NNE,22,8.0,11.0,83,0.00,,---,0.00,VWS V14.01,2013-04-24 08:22:00,
2013-04-24 03:23:00,68.4,63.0,29.94,NNE,22,12.0,17.0,83,0.00,,---,0.00,VWS V14.01,2013-04-24 08:23:00,
2013-04-24 03:24:00,68.1,62.8,29.94,NNE,22,14.0,18.0,83,0.00,,---,0.00,VWS V14.01,2013-04-24 08:24:00,
2013-04-24 03:25:00,67.6,61.9,29.94,NNE,22,10.0,17.0,82,0.00,,---,0.00,VWS V14.01,2013-04-24 08:25:00,
2013-04-24 03:26:00,67.3,61.6,29.94,NNE,22,7.0,13.0,82,0.00,,---,0.00,VWS V14.01,2013-04-24 08:26:00,
2013-04-24 03:27:00,67.1,61.4,29.94,NNE,22,8.0,13.0,82,0.00,,---,0.00,VWS V14.01,2013-04-24 08:27:00,
2013-04-24 03:28:00,66.8,61.5,29.94,North,0,9.0,18.0,83,0.00,,---,0.00,VWS V14.01,2013-04-24 08:28:00,
2013-04-24 03:29:00,66.6,60.9,29.94,NNE,22,12.0,18.0,82,0.00,,---,0.00,VWS V14.01,2013-04-24 08:29:00,
2013-04-24 03:30:00,66.4,60.7,29.94,NNE,22,11.0,16.0,82,0.00,,---,0.00,VWS V14.01,2013-04-24 08:30:00,
2013-04-24 03:31:00,66.2,60.5,29.94,NNE,22,13.0,19.0,82,0.00,,---,0.00,VWS V14.01,2013-04-24 08:31:00,
2013-04-24 03:32:00,65.9,60.3,29.94,NNE,22,15.0,21.0,82,0.00,,---,0.00,VWS V14.01,2013-04-24 08:32:00,
2013-04-24 03:33:00,65.7,60.4,29.94,NNE,22,10.0,15.0,83,0.00,,---,0.00,VWS V14.01,2013-04-24 08:33:00,
2013-04-24 03:34:00,65.6,60.0,29.94,North,0,11.0,15.0,82,0.00,,---,0.00,VWS V14.01,2013-04-24 08:34:00,
2013-04-24 03:35:00,65.4,60.1,29.95,North,0,9.0,20.0,83,0.00,,---,0.00,VWS V14.01,2013-04-24 08:35:00,
2013-04-24 03:36:00,65.3,60.0,29.95,NNE,22,10.0,20.0,83,0.00,,---,0.00,VWS V14.01,2013-04-24 08:36:00,
2013-04-24 03:37:00,65.1,59.8,29.95,NNE,22,9.0,15.0,83,0.00,,---,0.00,VWS V14.01,2013-04-24 08:37:00,
2013-04-24 03:38:00,65.0,59.7,29.95,North,0,9.0,15.0,83,0.00,,---,0.00,VWS V14.01,2013-04-24 08:38:00,
2013-04-24 03:39:00,64.9,59.6,29.95,NNE,22,11.0,17.0,83,0.00,,---,0.00,VWS V14.01,2013-04-24 08:39:00,
2013-04-24 03:40:00,64.8,59.5,29.95,NNE,22,9.0,14.0,83,0.00,,---,0.00,VWS V14.01,2013-04-24 08:40:00,
2013-04-24 03:41:00,64.7,59.4,29.95,NNW,338,8.0,13.0,83,0.00,,---,0.00,VWS V14.01,2013-04-24 08:41:00,
2013-04-24 03:42:00,64.6,59.3,29.95,North,0,10.0,20.0,83,0.00,,---,0.00,VWS V14.01,2013-04-24 08:42:00,
2013-04-24 03:43:00,64.4,59.1,29.95,North,0,10.0,15.0,83,0.00,,---,0.00,VWS V14.01,2013-04-24 08:43:00,
2013-04-24 03:44:00,64.3,59.0,29.95,NNE,22,11.0,15.0,83,0.00,,---,0.00,VWS V14.01,2013-04-24 08:44:00,
2013-04-24 03:45:00,64.2,58.9,29.95,North,0,12.0,20.0,83,0.00,,---,0.00,VWS V14.01,2013-04-24 08:45:00,
2013-04-24 03:46:00,64.1,58.8,29.95,North,0,10.0,18.0,83,0.00,,---,0.00,VWS V14.01,2013-04-24 08:46:00,
2013-04-24 03:47:00,63.9,58.6,29.95,North,0,9.0,17.0,83,0.00,,---,0.00,VWS V14.01,2013-04-24 08:47:00,
2013-04-24 03:48:00,63.8,58.5,29.95,North,0,9.0,15.0,83,0.00,,---,0.00,VWS V14.01,2013-04-24 08:48:00,
2013-04-24 03:49:00,63.6,58.3,29.95,North,0,9.0,17.0,83,0.00,,---,0.00,VWS V14.01,2013-04-24 08:49:00,
2013-04-24 03:50:00,63.5,58.2,29.95,North,0,9.0,18.0,83,0.00,,---,0.00,VWS V14.01,2013-04-24 08:50:00,
2013-04-24 03:51:00,63.3,58.1,29.95,NNE,22,11.0,16.0,83,0.00,,---,0.00,VWS V14.01,2013-04-24 08:51:00,
2013-04-24 03:52:00,63.1,57.9,29.95,North,0,7.0,13.0,83,0.00,,---,0.00,VWS V14.01,2013-04-24 08:52:00,
2013-04-24 03:53:00,63.0,57.8,29.95,NNE,22,10.0,18.0,83,0.00,,---,0.00,VWS V14.01,2013-04-24 08:53:00,
2013-04-24 03:54:00,62.8,57.9,29.95,NNE,22,11.0,15.0,84,0.00,,---,0.00,VWS V14.01,2013-04-24 08:54:00,
2013-04-24 03:55:00,62.7,57.8,29.95,NNE,22,13.0,19.0,84,0.00,,---,0.00,VWS V14.01,2013-04-24 08:55:00,
2013-04-24 03:56:00,62.5,57.6,29.95,NNE,22,16.0,20.0,84,0.00,,---,0.00,VWS V14.01,2013-04-24 08:56:00,
2013-04-24 03:57:00,62.4,57.5,29.95,NNE,22,17.0,23.0,84,0.00,,---,0.00,VWS V14.01,2013-04-24 08:57:00,
2013-04-24 03:58:00,62.2,57.6,29.95,NNE,22,15.0,23.0,85,0.00,,---,0.00,VWS V14.01,2013-04-24 08:58:00,
2013-04-24 03:59:00,62.1,57.5,29.95,North,0,11.0,16.0,85,0.00,,---,0.00,VWS V14.01,2013-04-24 08:59:00,
2013-04-24 04:00:00,61.9,57.3,29.95,NNE,22,13.0,17.0,85,0.00,,---,0.00,VWS V14.01,2013-04-24 09:00:00,
2013-04-24 04:01:00,61.7,57.5,29.95,NNE,22,12.0,16.0,86,0.00,,---,0.00,VWS V14.01,2013-04-24 09:01:00,
2013-04-24 04:02:00,61.6,57.4,29.95,North,0,7.0,11.0,86,0.00,,---,0.00,VWS V14.01,2013-04-24 09:02:00,
2013-04-24 04:03:00,61.5,57.3,29.95,NNE,22,12.0,17.0,86,0.00,,---,0.00,VWS V14.01,2013-04-24 09:03:00,
2013-04-24 04:04:00,61.4,57.2,29.95,NNE,22,13.0,21.0,86,0.00,,---,0.00,VWS V14.01,2013-04-24 09:04:00,
2013-04-24 04:05:00,61.3,57.4,29.95,NNE,22,13.0,18.0,87,0.00,,---,0.00,VWS V14.01,2013-04-24 09:05:00,
2013-04-24 04:06:00,61.1,57.2,29.96,NNE,22,12.0,16.0,87,0.00,,---,0.00,VWS V14.01,2013-04-24 09:06:00,
2013-04-24 04:07:00,61.0,57.1,29.96,NNE,22,12.0,22.0,87,0.00,,---,0.00,VWS V14.01,2013-04-24 09:07:00,
2013-04-24 04:08:00,60.9,57.0,29.96,NNE,22,11.0,17.0,87,0.00,,---,0.00,VWS V14.01,2013-04-24 09:08:00,
2013-04-24 04:09:00,60.8,57.2,29.95,NNE,22,13.0,17.0,88,0.00,,---,0.00,VWS V14.01,2013-04-24 09:09:00,
2013-04-24 04:10:00,60.7,57.1,29.96,NNE,22,9.0,13.0,88,0.00,,---,0.00,VWS V14.01,2013-04-24 09:10:00,
2013-04-24 04:11:00,60.6,57.0,29.96,NNE,22,11.0,17.0,88,0.00,,---,0.00,VWS V14.01,2013-04-24 09:11:00,
2013-04-24 04:12:00,60.5,56.9,29.96,NNE,22,6.0,15.0,88,0.00,,---,0.00,VWS V14.01,2013-04-24 09:12:00,
2013-04-24 04:13:00,60.4,57.2,29.96,North,0,11.0,18.0,89,0.00,,---,0.00,VWS V14.01,2013-04-24 09:13:00,
2013-04-24 04:14:00,60.4,57.2,29.96,NNE,22,13.0,20.0,89,0.00,,---,0.00,VWS V14.01,2013-04-24 09:14:00,
2013-04-24 04:15:00,60.3,57.0,29.96,North,0,8.0,15.0,89,0.00,,---,0.00,VWS V14.01,2013-04-24 09:15:00,
2013-04-24 04:16:00,60.1,56.8,29.96,NNE,22,13.0,19.0,89,0.00,,---,0.00,VWS V14.01,2013-04-24 09:16:00,
2013-04-24 04:17:00,60.0,56.8,29.96,North,0,9.0,18.0,89,0.00,,---,0.00,VWS V14.01,2013-04-24 09:17:00,
2013-04-24 04:18:00,59.9,56.7,29.96,NNE,22,12.0,20.0,89,0.00,,---,0.00,VWS V14.01,2013-04-24 09:18:00,
2013-04-24 04:19:00,59.8,56.6,29.96,NNE,22,11.0,20.0,89,0.00,,---,0.00,VWS V14.01,2013-04-24 09:19:00,
2013-04-24 04:20:00,59.7,56.5,29.96,NNE,22,14.0,23.0,89,0.00,,---,0.00,VWS V14.01,2013-04-24 09:20:00,
2013-04-24 04:21:00,59.5,56.3,29.96,NNE,22,14.0,19.0,89,0.00,,---,0.00,VWS V14.01,2013-04-24 09:21:00,
2013-04-24 04:22:00,59.4,56.2,29.96,North,0,12.0,20.0,89,0.00,,---,0.00,VWS V14.01,2013-04-24 09:22:00,
2013-04-24 04:23:00,59.2,56.0,29.97,NNE,22,12.0,20.0,89,0.00,,---,0.00,VWS V14.01,2013-04-24 09:23:00,
2013-04-24 04:24:00,59.1,56.2,29.97,NNE,22,14.0,20.0,90,0.00,,---,0.00,VWS V14.01,2013-04-24 09:24:00,
2013-04-24 04:25:00,59.0,56.1,29.97,North,0,11.0,17.0,90,0.00,,---,0.00,VWS V14.01,2013-04-24 09:25:00,
2013-04-24 04:26:00,58.9,56.0,29.97,North,0,11.0,18.0,90,0.00,,---,0.00,VWS V14.01,2013-04-24 09:26:00,
2013-04-24 04:27:00,58.7,55.8,29.97,NNE,22,9.0,12.0,90,0.00,,---,0.00,VWS V14.01,2013-04-24 09:27:00,
2013-04-24 04:28:00,58.6,55.7,29.97,North,0,10.0,17.0,90,0.00,,---,0.00,VWS V14.01,2013-04-24 09:28:00,
2013-04-24 04:29:00,58.5,55.6,29.97,North,0,9.0,16.0,90,0.00,,---,0.00,VWS V14.01,2013-04-24 09:29:00,
2013-04-24 04:30:00,58.4,55.5,29.97,NNE,22,12.0,18.0,90,0.00,,---,0.00,VWS V14.01,2013-04-24 09:30:00,
2013-04-24 04:31:00,58.2,55.3,29.97,NNE,22,13.0,19.0,90,0.00,,---,0.00,VWS V14.01,2013-04-24 09:31:00,
2013-04-24 04:32:00,58.1,55.2,29.97,NNE,22,15.0,21.0,90,0.00,,---,0.00,VWS V14.01,2013-04-24 09:32:00,
2013-04-24 04:33:00,57.9,55.0,29.97,NNE,22,11.0,17.0,90,0.00,,---,0.00,VWS V14.01,2013-04-24 09:33:00,
2013-04-24 04:34:00,57.7,54.8,29.97,NNE,22,13.0,19.0,90,0.00,,---,0.00,VWS V14.01,2013-04-24 09:34:00,
2013-04-24 04:35:00,57.6,54.7,29.97,North,0,9.0,13.0,90,0.00,,---,0.00,VWS V14.01,2013-04-24 09:35:00,
2013-04-24 04:36:00,57.5,54.6,29.97,NNE,22,11.0,20.0,90,0.00,,---,0.00,VWS V14.01,2013-04-24 09:36:00,
2013-04-24 04:37:00,57.4,54.5,29.97,NNE,22,17.0,23.0,90,0.00,,---,0.00,VWS V14.01,2013-04-24 09:37:00,
2013-04-24 04:38:00,57.2,54.3,29.97,NNE,22,12.0,18.0,90,0.00,,---,0.00,VWS V14.01,2013-04-24 09:38:00,
2013-04-24 04:39:00,57.1,54.2,29.97,NNE,22,16.0,25.0,90,0.00,,---,0.00,VWS V14.01,2013-04-24 09:39:00,
2013-04-24 04:40:00,56.9,54.0,29.97,NNE,22,16.0,21.0,90,0.00,,---,0.00,VWS V14.01,2013-04-24 09:40:00,
2013-04-24 04:41:00,56.8,54.2,29.97,NNE,22,12.0,24.0,91,0.00,,---,0.00,VWS V14.01,2013-04-24 09:41:00,
2013-04-24 04:42:00,56.7,54.1,29.97,NNE,22,14.0,20.0,91,0.00,,---,0.00,VWS V14.01,2013-04-24 09:42:00,
2013-04-24 04:43:00,56.6,54.0,29.97,NNE,22,14.0,21.0,91,0.00,,---,0.00,VWS V14.01,2013-04-24 09:43:00,
2013-04-24 04:44:00,56.5,53.9,29.97,NNE,22,14.0,19.0,91,0.00,,---,0.00,VWS V14.01,2013-04-24 09:44:00,
2013-04-24 04:45:00,56.4,53.8,29.97,North,0,15.0,21.0,91,0.00,,---,0.00,VWS V14.01,2013-04-24 09:45:00,
2013-04-24 04:46:00,56.3,53.7,29.97,NNE,22,11.0,16.0,91,0.00,,---,0.00,VWS V14.01,2013-04-24 09:46:00,
2013-04-24 04:47:00,56.3,53.7,29.97,NNE,22,15.0,20.0,91,0.00,,---,0.00,VWS V14.01,2013-04-24 09:47:00,
2013-04-24 04:48:00,56.2,53.6,29.97,NNE,22,12.0,19.0,91,0.00,,---,0.00,VWS V14.01,2013-04-24 09:48:00,
2013-04-24 04:49:00,56.2,53.6,29.97,NNE,22,13.0,18.0,91,0.00,,---,0.00,VWS V14.01,2013-04-24 09:49:00,
2013-04-24 04:50:00,56.2,53.9,29.97,NNE,22,15.0,23.0,92,0.00,,---,0.00,VWS V14.01,2013-04-24 09:50:00,
2013-04-24 04:51:00,56.1,53.8,29.97,NNE,22,12.0,16.0,92,0.00,,---,0.00,VWS V14.01,2013-04-24 09:51:00,
2013-04-24 04:52:00,56.1,53.8,29.97,NNE,22,14.0,20.0,92,0.00,,---,0.00,VWS V14.01,2013-04-24 09:52:00,
2013-04-24 04:53:00,56.0,53.7,29.97,NNE,22,15.0,24.0,92,0.00,,---,0.00,VWS V14.01,2013-04-24 09:53:00,
2013-04-24 04:54:00,56.0,53.7,29.97,NNE,22,19.0,27.0,92,0.00,,---,0.00,VWS V14.01,2013-04-24 09:54:00,
2013-04-24 04:55:00,55.9,53.6,29.97,NNE,22,15.0,24.0,92,0.00,,---,0.00,VWS V14.01,2013-04-24 09:55:00,
2013-04-24 04:56:00,55.9,53.6,29.98,NNE,22,14.0,24.0,92,0.00,,---,0.00,VWS V14.01,2013-04-24 09:56:00,
2013-04-24 04:57:00,55.8,53.5,29.98,NNE,22,17.0,26.0,92,0.00,,---,0.00,VWS V14.01,2013-04-24 09:57:00,
2013-04-24 04:58:00,55.7,53.4,29.97,NNE,22,16.0,23.0,92,0.00,,---,0.00,VWS V14.01,2013-04-24 09:58:00,
2013-04-24 04:59:00,55.7,53.4,29.98,NNE,22,19.0,24.0,92,0.00,,---,0.00,VWS V14.01,2013-04-24 09:59:00,
2013-04-24 05:00:00,55.6,53.3,29.98,NNE,22,17.0,25.0,92,0.00,,---,0.00,VWS V14.01,2013-04-24 10:00:00,
2013-04-24 05:01:00,55.5,53.2,29.98,NNE,22,17.0,23.0,92,0.00,,---,0.00,VWS V14.01,2013-04-24 10:01:00,
2013-04-24 05:02:00,55.4,53.1,29.98,NNE,22,18.0,27.0,92,0.00,,---,0.00,VWS V14.01,2013-04-24 10:02:00,
2013-04-24 05:03:00,55.3,53.0,29.97,NNE,22,14.0,25.0,92,0.00,,---,0.00,VWS V14.01,2013-04-24 10:03:00,
2013-04-24 05:04:00,55.2,52.9,29.98,NNE,22,17.0,26.0,92,0.00,,---,0.00,VWS V14.01,2013-04-24 10:04:00,
2013-04-24 05:05:00,55.1,52.8,29.98,NNE,22,18.0,26.0,92,0.00,,---,0.00,VWS V14.01,2013-04-24 10:05:00,
2013-04-24 05:06:00,55.0,52.7,29.98,NNE,22,15.0,21.0,92,0.00,,---,0.00,VWS V14.01,2013-04-24 10:06:00,
2013-04-24 05:07:00,55.0,52.7,29.98,NNE,22,13.0,18.0,92,0.00,,---,0.00,VWS V14.01,2013-04-24 10:07:00,
2013-04-24 05:08:00,54.9,52.6,29.98,NNE,22,13.0,25.0,92,0.01,,---,0.01,VWS V14.01,2013-04-24 10:08:00,
2013-04-24 05:09:00,54.8,52.5,29.98,NNE,22,12.0,18.0,92,0.01,,---,0.01,VWS V14.01,2013-04-24 10:09:00,
2013-04-24 05:10:00,54.8,52.5,29.98,NNE,22,16.0,24.0,92,0.01,,---,0.01,VWS V14.01,2013-04-24 10:10:00,
2013-04-24 05:11:00,54.7,52.4,29.98,NNE,22,14.0,22.0,92,0.01,,---,0.01,VWS V14.01,2013-04-24 10:11:00,
2013-04-24 05:12:00,54.6,52.3,29.98,NNE,22,18.0,22.0,92,0.01,,---,0.01,VWS V14.01,2013-04-24 10:12:00,
2013-04-24 05:13:00,54.6,52.3,29.98,NNE,22,14.0,22.0,92,0.01,,---,0.01,VWS V14.01,2013-04-24 10:13:00,
2013-04-24 05:14:00,54.5,52.2,29.99,North,0,13.0,19.0,92,0.01,,---,0.01,VWS V14.01,2013-04-24 10:14:00,
2013-04-24 05:15:00,54.4,52.1,29.99,NNE,22,13.0,20.0,92,0.01,,---,0.01,VWS V14.01,2013-04-24 10:15:00,
2013-04-24 05:16:00,54.3,52.0,29.99,NNE,22,19.0,25.0,92,0.01,,---,0.01,VWS V14.01,2013-04-24 10:16:00,
2013-04-24 05:17:00,54.3,52.0,29.98,North,0,17.0,20.0,92,0.01,,---,0.01,VWS V14.01,2013-04-24 10:17:00,
2013-04-24 05:18:00,54.2,51.9,29.99,NNE,22,18.0,23.0,92,0.01,,---,0.01,VWS V14.01,2013-04-24 10:18:00,
2013-04-24 05:19:00,54.2,51.9,29.99,NNE,22,14.0,20.0,92,0.01,,---,0.01,VWS V14.01,2013-04-24 10:19:00,
2013-04-24 05:21:00,54.1,51.8,29.99,NNE,22,13.0,20.0,92,0.01,,---,0.01,VWS V14.01,2013-04-24 10:21:00,
2013-04-24 05:22:00,54.1,51.8,29.99,NNE,22,10.0,17.0,92,0.01,,---,0.01,VWS V14.01,2013-04-24 10:22:00,
2013-04-24 05:23:00,54.1,51.8,29.99,North,0,9.0,19.0,92,0.01,,---,0.01,VWS V14.01,2013-04-24 10:23:00,
2013-04-24 05:24:00,54.1,52.1,29.99,North,0,10.0,17.0,93,0.01,,---,0.01,VWS V14.01,2013-04-24 10:24:00,
2013-04-24 05:25:00,54.1,52.1,29.99,North,0,12.0,18.0,93,0.01,,---,0.01,VWS V14.01,2013-04-24 10:25:00,
2013-04-24 05:26:00,54.0,51.7,29.99,NNW,338,11.0,16.0,92,0.01,,---,0.01,VWS V14.01,2013-04-24 10:26:00,
2013-04-24 05:27:00,53.9,51.6,29.99,North,0,12.0,19.0,92,0.01,,---,0.01,VWS V14.01,2013-04-24 10:27:00,
2013-04-24 05:28:00,53.9,51.6,29.99,North,0,7.0,11.0,92,0.01,,---,0.01,VWS V14.01,2013-04-24 10:28:00,
2013-04-24 05:29:00,53.7,51.4,29.99,North,0,10.0,16.0,92,0.01,,---,0.01,VWS V14.01,2013-04-24 10:29:00,
2013-04-24 05:30:00,53.6,51.3,29.99,NNE,22,10.0,18.0,92,0.01,,---,0.01,VWS V14.01,2013-04-24 10:30:00,
2013-04-24 05:31:00,53.6,51.3,29.99,NNE,22,9.0,18.0,92,0.01,,---,0.01,VWS V14.01,2013-04-24 10:31:00,
2013-04-24 05:32:00,53.5,51.2,29.99,NNE,22,10.0,18.0,92,0.01,,---,0.01,VWS V14.01,2013-04-24 10:32:00,
2013-04-24 05:33:00,53.5,51.2,29.99,NNE,22,9.0,15.0,92,0.01,,---,0.01,VWS V14.01,2013-04-24 10:33:00,
2013-04-24 05:34:00,53.5,51.5,29.99,NNE,22,7.0,14.0,93,0.01,,---,0.01,VWS V14.01,2013-04-24 10:34:00,
2013-04-24 05:35:00,53.5,51.5,29.99,NNE,22,7.0,15.0,93,0.01,,---,0.01,VWS V14.01,2013-04-24 10:35:00,
2013-04-24 05:36:00,53.5,51.5,30.00,North,0,10.0,19.0,93,0.01,,---,0.01,VWS V14.01,2013-04-24 10:36:00,
2013-04-24 05:37:00,53.5,51.5,29.99,NNE,22,12.0,20.0,93,0.01,,---,0.01,VWS V14.01,2013-04-24 10:37:00,
2013-04-24 05:38:00,53.5,51.5,30.00,North,0,13.0,18.0,93,0.01,,---,0.01,VWS V14.01,2013-04-24 10:38:00,
2013-04-24 05:39:00,53.4,51.4,29.99,North,0,11.0,18.0,93,0.01,,---,0.01,VWS V14.01,2013-04-24 10:39:00,
2013-04-24 05:40:00,53.4,51.4,30.00,North,0,7.0,11.0,93,0.01,,---,0.01,VWS V14.01,2013-04-24 10:40:00,
2013-04-24 05:41:00,53.3,51.3,30.00,NNE,22,9.0,20.0,93,0.01,,---,0.01,VWS V14.01,2013-04-24 10:41:00,
2013-04-24 05:42:00,53.3,51.3,30.00,NNE,22,8.0,13.0,93,0.01,,---,0.01,VWS V14.01,2013-04-24 10:42:00,
2013-04-24 05:43:00,53.3,51.3,30.00,NNE,22,11.0,17.0,93,0.01,,---,0.01,VWS V14.01,2013-04-24 10:43:00,
2013-04-24 05:44:00,53.2,51.2,30.00,NNE,22,12.0,16.0,93,0.01,,---,0.01,VWS V14.01,2013-04-24 10:44:00,
2013-04-24 05:45:00,53.2,51.2,30.00,NNE,22,9.0,18.0,93,0.01,,---,0.01,VWS V14.01,2013-04-24 10:45:00,
2013-04-24 05:46:00,53.2,51.2,30.00,North,0,10.0,18.0,93,0.01,,---,0.01,VWS V14.01,2013-04-24 10:46:00,
2013-04-24 05:47:00,53.2,51.2,30.00,NNE,22,11.0,16.0,93,0.01,,---,0.01,VWS V14.01,2013-04-24 10:47:00,
2013-04-24 05:48:00,53.1,51.1,30.00,North,0,12.0,17.0,93,0.01,,---,0.01,VWS V14.01,2013-04-24 10:48:00,
2013-04-24 05:49:00,53.1,51.1,30.00,North,0,14.0,25.0,93,0.01,,---,0.01,VWS V14.01,2013-04-24 10:49:00,
2013-04-24 05:50:00,53.1,51.1,30.00,North,0,13.0,19.0,93,0.01,,---,0.01,VWS V14.01,2013-04-24 10:50:00,
2013-04-24 05:51:00,53.0,51.0,30.00,NNE,22,15.0,21.0,93,0.01,,---,0.01,VWS V14.01,2013-04-24 10:51:00,
2013-04-24 05:52:00,53.0,51.0,30.00,North,0,16.0,24.0,93,0.01,,---,0.01,VWS V14.01,2013-04-24 10:52:00,
2013-04-24 05:53:00,52.9,50.9,30.00,NNE,22,13.0,18.0,93,0.01,,---,0.01,VWS V14.01,2013-04-24 10:53:00,
2013-04-24 05:54:00,52.8,50.8,30.00,NNE,22,13.0,16.0,93,0.02,,---,0.02,VWS V14.01,2013-04-24 10:54:00,
2013-04-24 05:55:00,52.8,50.8,30.00,NNE,22,11.0,20.0,93,0.02,,---,0.02,VWS V14.01,2013-04-24 10:55:00,
2013-04-24 05:56:00,52.7,50.7,30.00,NNE,22,16.0,23.0,93,0.02,,---,0.02,VWS V14.01,2013-04-24 10:56:00,
2013-04-24 05:57:00,52.6,50.6,30.00,NNE,22,12.0,20.0,93,0.02,,---,0.02,VWS V14.01,2013-04-24 10:57:00,
2013-04-24 05:58:00,52.5,50.5,30.00,North,0,11.0,17.0,93,0.02,,---,0.02,VWS V14.01,2013-04-24 10:58:00,
2013-04-24 05:59:00,52.5,50.5,30.00,NNE,22,10.0,17.0,93,0.02,,---,0.02,VWS V14.01,2013-04-24 10:59:00,
2013-04-24 06:00:00,52.4,50.4,30.00,NNE,22,15.0,20.0,93,0.02,,---,0.02,VWS V14.01,2013-04-24 11:00:00,
2013-04-24 06:01:00,52.4,50.4,30.00,NNE,22,14.0,23.0,93,0.02,,---,0.02,VWS V14.01,2013-04-24 11:01:00,
2013-04-24 06:02:00,52.3,50.3,30.00,NNE,22,16.0,24.0,93,0.02,,---,0.02,VWS V14.01,2013-04-24 11:02:00,
2013-04-24 06:03:00,52.2,50.2,30.00,NNE,22,15.0,25.0,93,0.02,,---,0.02,VWS V14.01,2013-04-24 11:03:00,
2013-04-24 06:04:00,52.2,50.2,30.00,NNE,22,15.0,23.0,93,0.02,,---,0.02,VWS V14.01,2013-04-24 11:04:00,
2013-04-24 06:05:00,52.1,50.1,30.00,NNE,22,15.0,20.0,93,0.02,,---,0.02,VWS V14.01,2013-04-24 11:05:00,
2013-04-24 06:06:00,52.0,50.0,30.00,North,0,13.0,18.0,93,0.02,,---,0.02,VWS V14.01,2013-04-24 11:06:00,
2013-04-24 06:07:00,52.0,50.0,30.00,NNE,22,12.0,22.0,93,0.02,,---,0.02,VWS V14.01,2013-04-24 11:07:00,
2013-04-24 06:08:00,52.0,50.0,30.00,North,0,10.0,17.0,93,0.02,,---,0.02,VWS V14.01,2013-04-24 11:08:00,
2013-04-24 06:09:00,52.0,50.0,30.01,NNE,22,8.0,17.0,93,0.01,,---,0.02,VWS V14.01,2013-04-24 11:09:00,
2013-04-24 06:10:00,52.0,50.0,30.01,NNE,22,13.0,24.0,93,0.01,,---,0.02,VWS V14.01,2013-04-24 11:10:00,
2013-04-24 06:11:00,52.0,50.0,30.00,NNE,22,15.0,22.0,93,0.01,,---,0.02,VWS V14.01,2013-04-24 11:11:00,
2013-04-24 06:12:00,52.0,50.0,30.00,NNE,22,14.0,21.0,93,0.01,,---,0.02,VWS V14.01,2013-04-24 11:12:00,
2013-04-24 06:13:00,52.0,50.0,30.01,NNE,22,14.0,18.0,93,0.01,,---,0.02,VWS V14.01,2013-04-24 11:13:00,
2013-04-24 06:14:00,52.0,50.0,30.01,NNE,22,10.0,16.0,93,0.01,,---,0.02,VWS V14.01,2013-04-24 11:14:00,
2013-04-24 06:15:00,51.9,49.9,30.01,NNE,22,12.0,20.0,93,0.01,,---,0.02,VWS V14.01,2013-04-24 11:15:00,
2013-04-24 06:16:00,51.9,49.9,30.01,NNE,22,11.0,20.0,93,0.01,,---,0.02,VWS V14.01,2013-04-24 11:16:00,
2013-04-24 06:17:00,52.0,50.0,30.01,NNE,22,11.0,19.0,93,0.01,,---,0.02,VWS V14.01,2013-04-24 11:17:00,
2013-04-24 06:18:00,52.0,50.0,30.01,North,0,12.0,17.0,93,0.01,,---,0.02,VWS V14.01,2013-04-24 11:18:00,
2013-04-24 06:19:00,52.0,50.0,30.01,NNE,22,10.0,16.0,93,0.01,,---,0.02,VWS V14.01,2013-04-24 11:19:00,
2013-04-24 06:20:00,52.0,50.0,30.01,NNE,22,12.0,20.0,93,0.01,,---,0.02,VWS V14.01,2013-04-24 11:20:00,
2013-04-24 06:21:00,52.0,50.0,30.01,NNE,22,12.0,16.0,93,0.01,,---,0.02,VWS V14.01,2013-04-24 11:21:00,
2013-04-24 06:22:00,52.0,50.0,30.01,NNE,22,10.0,14.0,93,0.01,,---,0.02,VWS V14.01,2013-04-24 11:22:00,
2013-04-24 06:23:00,52.0,50.0,30.01,NNE,22,10.0,17.0,93,0.01,,---,0.02,VWS V14.01,2013-04-24 11:23:00,
2013-04-24 06:24:00,52.0,50.0,30.01,NNE,22,11.0,17.0,93,0.01,,---,0.02,VWS V14.01,2013-04-24 11:24:00,
2013-04-24 06:25:00,52.0,50.0,30.01,NNE,22,13.0,22.0,93,0.01,,---,0.02,VWS V14.01,2013-04-24 11:25:00,
2013-04-24 06:26:00,52.0,50.3,30.01,NNE,22,15.0,24.0,94,0.01,,---,0.02,VWS V14.01,2013-04-24 11:26:00,
2013-04-24 06:27:00,52.0,50.0,30.01,NNE,22,15.0,22.0,93,0.01,,---,0.02,VWS V14.01,2013-04-24 11:27:00,
2013-04-24 06:28:00,52.0,50.0,30.01,NNE,22,14.0,18.0,93,0.01,,---,0.02,VWS V14.01,2013-04-24 11:28:00,
2013-04-24 06:29:00,51.9,49.9,30.01,NNE,22,14.0,20.0,93,0.01,,---,0.02,VWS V14.01,2013-04-24 11:29:00,
2013-04-24 06:30:00,52.0,50.0,30.01,North,0,11.0,19.0,93,0.01,,---,0.02,VWS V14.01,2013-04-24 11:30:00,
2013-04-24 06:31:00,51.9,49.9,30.01,NNE,22,13.0,20.0,93,0.01,,---,0.02,VWS V14.01,2013-04-24 11:31:00,
2013-04-24 06:32:00,52.0,50.0,30.01,NNE,22,12.0,18.0,93,0.01,,---,0.02,VWS V14.01,2013-04-24 11:32:00,
2013-04-24 06:33:00,51.9,49.9,30.01,NNE,22,12.0,16.0,93,0.01,,---,0.02,VWS V14.01,2013-04-24 11:33:00,
2013-04-24 06:34:00,51.9,49.9,30.01,NNE,22,15.0,21.0,93,0.01,,---,0.02,VWS V14.01,2013-04-24 11:34:00,
2013-04-24 06:35:00,51.9,49.9,30.01,NNE,22,14.0,19.0,93,0.01,,---,0.02,VWS V14.01,2013-04-24 11:35:00,
2013-04-24 06:36:00,51.9,49.9,30.01,North,0,15.0,20.0,93,0.01,,---,0.02,VWS V14.01,2013-04-24 11:36:00,
2013-04-24 06:37:00,51.9,49.9,30.01,North,0,12.0,18.0,93,0.01,,---,0.02,VWS V14.01,2013-04-24 11:37:00,
2013-04-24 06:38:00,51.9,49.9,30.01,NNE,22,11.0,17.0,93,0.01,,---,0.02,VWS V14.01,2013-04-24 11:38:00,
2013-04-24 06:39:00,51.8,49.8,30.01,NNE,22,9.0,14.0,93,0.01,,---,0.02,VWS V14.01,2013-04-24 11:39:00,
2013-04-24 06:40:00,51.8,49.8,30.02,NNE,22,13.0,20.0,93,0.01,,---,0.02,VWS V14.01,2013-04-24 11:40:00,
2013-04-24 06:41:00,51.8,49.8,30.02,NNE,22,14.0,21.0,93,0.01,,---,0.02,VWS V14.01,2013-04-24 11:41:00,
2013-04-24 06:42:00,51.8,49.8,30.02,NNE,22,15.0,24.0,93,0.01,,---,0.02,VWS V14.01,2013-04-24 11:42:00,
2013-04-24 06:43:00,51.7,49.8,30.02,NNE,22,10.0,21.0,93,0.01,,---,0.02,VWS V14.01,2013-04-24 11:43:00,
2013-04-24 06:44:00,51.7,49.8,30.02,NNE,22,14.0,24.0,93,0.01,,---,0.02,VWS V14.01,2013-04-24 11:44:00,
2013-04-24 06:45:00,51.7,49.8,30.02,NNE,22,9.0,16.0,93,0.01,,---,0.02,VWS V14.01,2013-04-24 11:45:00,
2013-04-24 06:46:00,51.6,49.7,30.01,NNE,22,16.0,20.0,93,0.01,,---,0.02,VWS V14.01,2013-04-24 11:46:00,
2013-04-24 06:47:00,51.6,49.7,30.01,NNE,22,14.0,23.0,93,0.01,,---,0.02,VWS V14.01,2013-04-24 11:47:00,
2013-04-24 06:48:00,51.5,49.5,30.01,North,0,14.0,20.0,93,0.01,,---,0.02,VWS V14.01,2013-04-24 11:48:00,
2013-04-24 06:49:00,51.5,49.5,30.01,North,0,11.0,16.0,93,0.01,,---,0.02,VWS V14.01,2013-04-24 11:49:00,
2013-04-24 06:50:00,51.5,49.5,30.02,NNE,22,13.0,19.0,93,0.01,,---,0.02,VWS V14.01,2013-04-24 11:50:00,
2013-04-24 06:51:00,51.5,49.5,30.01,North,0,8.0,13.0,93,0.01,,---,0.02,VWS V14.01,2013-04-24 11:51:00,
2013-04-24 06:52:00,51.4,49.5,30.02,NNE,22,13.0,19.0,93,0.01,,---,0.02,VWS V14.01,2013-04-24 11:52:00,
2013-04-24 06:53:00,51.4,49.5,30.02,NNE,22,11.0,16.0,93,0.01,,---,0.02,VWS V14.01,2013-04-24 11:53:00,
2013-04-24 06:54:00,51.4,49.5,30.02,North,0,9.0,16.0,93,0.01,,---,0.02,VWS V14.01,2013-04-24 11:54:00,
2013-04-24 06:55:00,51.4,49.5,30.02,NNE,22,10.0,18.0,93,0.00,,---,0.02,VWS V14.01,2013-04-24 11:55:00,
2013-04-24 06:56:00,51.4,49.5,30.02,North,0,7.0,14.0,93,0.00,,---,0.02,VWS V14.01,2013-04-24 11:56:00,
2013-04-24 06:57:00,51.4,49.5,30.02,North,0,7.0,12.0,93,0.00,,---,0.02,VWS V14.01,2013-04-24 11:57:00,
2013-04-24 06:58:00,51.4,49.5,30.02,NNE,22,10.0,20.0,93,0.00,,---,0.02,VWS V14.01,2013-04-24 11:58:00,
2013-04-24 06:59:00,51.4,49.5,30.02,North,0,10.0,20.0,93,0.00,,---,0.02,VWS V14.01,2013-04-24 11:59:00,
2013-04-24 07:00:00,51.4,49.5,30.02,North,0,11.0,20.0,93,0.00,,---,0.02,VWS V14.01,2013-04-24 12:00:00,
2013-04-24 07:01:00,51.4,49.5,30.02,North,0,11.0,18.0,93,0.00,,---,0.02,VWS V14.01,2013-04-24 12:01:00,
2013-04-24 07:02:00,51.4,49.5,30.03,North,0,11.0,20.0,93,0.00,,---,0.02,VWS V14.01,2013-04-24 12:02:00,
2013-04-24 07:03:00,51.3,49.3,30.02,NNE,22,12.0,21.0,93,0.00,,---,0.02,VWS V14.01,2013-04-24 12:03:00,
2013-04-24 07:04:00,51.3,49.3,30.03,North,0,10.0,19.0,93,0.00,,---,0.02,VWS V14.01,2013-04-24 12:04:00,
2013-04-24 07:14:00,51.2,49.2,30.03,North,0,14.0,19.0,93,0.00,,---,0.02,VWS V14.01,2013-04-24 12:14:00,
2013-04-24 07:19:00,51.0,49.0,30.03,North,360,15.0,15.0,93,0.00,,---,0.02,VWS V14.01,2013-04-24 12:19:00,
2013-04-24 07:24:00,51.1,49.2,30.04,North,360,11.0,11.0,93,0.00,,---,0.02,VWS V14.01,2013-04-24 12:24:00,
2013-04-24 07:29:00,51.1,49.2,30.04,North,355,0.0,3.0,93,0.00,,---,0.02,VWS V14.01,2013-04-24 12:29:00,
2013-04-24 07:34:00,51.1,49.2,30.04,NNW,340,23.0,23.0,93,0.00,,---,0.02,VWS V14.01,2013-04-24 12:34:00,
2013-04-24 07:39:00,51.0,49.0,30.05,NNW,344,15.0,15.0,93,0.00,,---,0.02,VWS V14.01,2013-04-24 12:39:00,
2013-04-24 07:44:00,50.9,48.7,30.05,North,10,12.0,12.0,92,0.00,,---,0.02,VWS V14.01,2013-04-24 12:44:00,
2013-04-24 07:49:00,50.9,48.7,30.05,NNE,24,23.0,23.0,92,0.00,,---,0.02,VWS V14.01,2013-04-24 12:49:00,
2013-04-24 07:54:00,50.9,48.7,30.05,NNE,31,16.0,19.0,92,0.00,,---,0.02,VWS V14.01,2013-04-24 12:54:00,
2013-04-24 07:59:00,51.0,48.8,30.06,North,355,3.0,11.0,92,0.00,,---,0.02,VWS V14.01,2013-04-24 12:59:00,
2013-04-24 08:04:00,50.9,48.7,30.06,North,9,11.0,11.0,92,0.00,,---,0.02,VWS V14.01,2013-04-24 13:04:00,
2013-04-24 08:09:00,50.6,48.1,30.06,NNW,342,9.0,13.0,91,0.00,,---,0.02,VWS V14.01,2013-04-24 13:09:00,
2013-04-24 08:14:00,50.5,48.0,30.07,North,10,5.0,5.0,91,0.00,,---,0.02,VWS V14.01,2013-04-24 13:14:00,
2013-04-24 08:19:00,50.5,48.0,30.07,North,355,3.0,10.0,91,0.00,,---,0.02,VWS V14.01,2013-04-24 13:19:00,
2013-04-24 08:24:00,50.5,48.0,30.06,NNW,327,13.0,13.0,91,0.00,,---,0.02,VWS V14.01,2013-04-24 13:24:00,
2013-04-24 08:29:00,50.6,48.1,30.06,North,355,12.0,16.0,91,0.00,,---,0.02,VWS V14.01,2013-04-24 13:29:00,
2013-04-24 08:34:00,50.8,48.3,30.07,North,360,9.0,9.0,91,0.00,,---,0.02,VWS V14.01,2013-04-24 13:34:00,
2013-04-24 08:39:00,50.9,48.4,30.07,NNW,348,13.0,14.0,91,0.00,,---,0.02,VWS V14.01,2013-04-24 13:39:00,
2013-04-24 08:44:00,51.0,48.5,30.07,NNE,28,18.0,18.0,91,0.00,,---,0.02,VWS V14.01,2013-04-24 13:44:00,
2013-04-24 08:49:00,51.1,48.3,30.07,NNE,20,13.0,13.0,90,0.00,,---,0.02,VWS V14.01,2013-04-24 13:49:00,
2013-04-24 08:54:00,51.3,48.5,30.07,NNE,24,6.0,9.0,90,0.00,,---,0.02,VWS V14.01,2013-04-24 13:54:00,
2013-04-24 08:59:00,51.4,48.6,30.08,NNE,13,15.0,20.0,90,0.00,,---,0.02,VWS V14.01,2013-04-24 13:59:00,
2013-04-24 09:04:00,51.5,48.4,30.08,North,355,6.0,11.0,89,0.00,,---,0.02,VWS V14.01,2013-04-24 14:04:00,
2013-04-24 09:09:00,51.5,48.4,30.08,NNE,18,13.0,13.0,89,0.00,,---,0.02,VWS V14.01,2013-04-24 14:09:00,
2013-04-24 09:14:00,51.6,48.2,30.08,North,5,10.0,18.0,88,0.00,,---,0.02,VWS V14.01,2013-04-24 14:14:00,
2013-04-24 09:19:00,51.6,48.2,30.08,NNW,329,14.0,14.0,88,0.00,,---,0.02,VWS V14.01,2013-04-24 14:19:00,
2013-04-24 09:24:00,51.6,48.2,30.09,North,355,15.0,20.0,88,0.00,,---,0.02,VWS V14.01,2013-04-24 14:24:00,
2013-04-24 09:29:00,51.6,47.9,30.09,NNE,22,4.0,15.0,87,0.00,,---,0.02,VWS V14.01,2013-04-24 14:29:00,
2013-04-24 09:34:00,51.6,47.9,30.09,North,351,9.0,13.0,87,0.00,,---,0.02,VWS V14.01,2013-04-24 14:34:00,
2013-04-24 09:39:00,51.7,47.7,30.10,NNE,19,7.0,16.0,86,0.00,,---,0.02,VWS V14.01,2013-04-24 14:39:00,
2013-04-24 09:44:00,51.9,47.8,30.10,NW,322,12.0,12.0,86,0.00,,---,0.02,VWS V14.01,2013-04-24 14:44:00,
2013-04-24 09:49:00,52.0,48.0,30.11,North,5,7.0,11.0,86,0.00,,---,0.02,VWS V14.01,2013-04-24 14:49:00,
2013-04-24 09:54:00,52.0,47.6,30.11,NNW,344,5.0,12.0,85,0.00,,---,0.02,VWS V14.01,2013-04-24 14:54:00,
2013-04-24 09:59:00,52.1,47.7,30.11,NNW,340,5.0,7.0,85,0.00,,---,0.02,VWS V14.01,2013-04-24 14:59:00,
2013-04-24 10:04:00,52.1,47.7,30.11,North,5,6.0,9.0,85,0.00,,---,0.02,VWS V14.01,2013-04-24 15:04:00,
2013-04-24 10:09:00,52.1,47.7,30.11,North,11,5.0,10.0,85,0.00,,---,0.02,VWS V14.01,2013-04-24 15:09:00,
2013-04-24 10:14:00,52.1,47.7,30.10,NNW,344,10.0,12.0,85,0.00,,---,0.02,VWS V14.01,2013-04-24 15:14:00,
2013-04-24 10:19:00,52.1,47.4,30.10,NNW,341,10.0,11.0,84,0.00,,---,0.02,VWS V14.01,2013-04-24 15:19:00,
2013-04-24 10:24:00,52.0,47.3,30.11,NNE,24,5.0,6.0,84,0.00,,---,0.02,VWS V14.01,2013-04-24 15:24:00,
2013-04-24 10:29:00,52.0,47.6,30.11,North,350,12.0,12.0,85,0.00,,---,0.02,VWS V14.01,2013-04-24 15:29:00,
2013-04-24 10:34:00,52.1,48.0,30.11,North,5,6.0,6.0,86,0.00,,---,0.02,VWS V14.01,2013-04-24 15:34:00,
2013-04-24 10:39:00,52.2,47.8,30.11,NNE,13,9.0,9.0,85,0.00,,---,0.02,VWS V14.01,2013-04-24 15:39:00,
2013-04-24 10:44:00,52.3,47.9,30.12,NNE,17,5.0,5.0,85,0.00,,---,0.02,VWS V14.01,2013-04-24 15:44:00,
2013-04-24 10:49:00,52.4,48.0,30.12,North,360,13.0,13.0,85,0.00,,---,0.02,VWS V14.01,2013-04-24 15:49:00,
2013-04-24 10:54:00,52.5,48.1,30.12,NNW,348,7.0,15.0,85,0.00,,---,0.02,VWS V14.01,2013-04-24 15:54:00,
2013-04-24 10:59:00,52.6,47.9,30.12,NNE,15,7.0,12.0,84,0.00,,---,0.02,VWS V14.01,2013-04-24 15:59:00,
2013-04-24 11:04:00,52.7,48.0,30.12,North,5,2.0,15.0,84,0.00,,---,0.02,VWS V14.01,2013-04-24 16:04:00,
2013-04-24 11:09:00,52.8,47.8,30.12,NNE,25,12.0,12.0,83,0.00,,---,0.02,VWS V14.01,2013-04-24 16:09:00,
2013-04-24 11:14:00,52.8,47.8,30.12,NNE,23,18.0,18.0,83,0.00,,---,0.02,VWS V14.01,2013-04-24 16:14:00,
2013-04-24 11:19:00,52.9,48.2,30.12,NNE,20,13.0,13.0,84,0.00,,---,0.02,VWS V14.01,2013-04-24 16:19:00,
2013-04-24 11:24:00,53.0,48.3,30.12,NNE,20,13.0,17.0,84,0.00,,---,0.02,VWS V14.01,2013-04-24 16:24:00,
2013-04-24 11:29:00,53.2,48.5,30.12,NNW,346,1.0,6.0,84,0.00,,---,0.02,VWS V14.01,2013-04-24 16:29:00,
2013-04-24 11:34:00,53.3,48.3,30.13,NNE,26,10.0,12.0,83,0.00,,---,0.02,VWS V14.01,2013-04-24 16:34:00,
2013-04-24 11:39:00,53.3,48.3,30.13,NNW,336,0.0,10.0,83,0.00,,---,0.02,VWS V14.01,2013-04-24 16:39:00,
2013-04-24 11:44:00,53.4,48.4,30.13,NW,310,4.0,8.0,83,0.00,,---,0.02,VWS V14.01,2013-04-24 16:44:00,
2013-04-24 11:49:00,53.3,48.0,30.13,NNE,15,4.0,16.0,82,0.00,,---,0.02,VWS V14.01,2013-04-24 16:49:00,
2013-04-24 11:54:00,53.3,48.0,30.13,North,360,4.0,10.0,82,0.00,,---,0.02,VWS V14.01,2013-04-24 16:54:00,
2013-04-24 11:59:00,53.5,48.5,30.13,NNW,346,1.0,7.0,83,0.00,,---,0.02,VWS V14.01,2013-04-24 16:59:00,
2013-04-24 12:04:00,53.5,48.5,30.13,North,355,6.0,14.0,83,0.00,,---,0.02,VWS V14.01,2013-04-24 17:04:00,
2013-04-24 12:09:00,53.4,48.4,30.13,NNW,336,7.0,11.0,83,0.00,,---,0.02,VWS V14.01,2013-04-24 17:09:00,
2013-04-24 12:14:00,53.3,48.3,30.13,North,10,14.0,14.0,83,0.00,,---,0.02,VWS V14.01,2013-04-24 17:14:00,
2013-04-24 12:19:00,53.3,48.3,30.13,NNE,13,8.0,12.0,83,0.00,,---,0.02,VWS V14.01,2013-04-24 17:19:00,
2013-04-24 12:24:00,53.3,48.0,30.13,North,10,12.0,12.0,82,0.00,,---,0.02,VWS V14.01,2013-04-24 17:24:00,
2013-04-24 12:29:00,53.3,48.0,30.13,North,355,13.0,14.0,82,0.00,,---,0.02,VWS V14.01,2013-04-24 17:29:00,
2013-04-24 12:34:00,53.3,48.3,30.13,NNE,29,9.0,13.0,83,0.00,,---,0.02,VWS V14.01,2013-04-24 17:34:00,
2013-04-24 12:39:00,53.2,47.9,30.14,North,350,8.0,12.0,82,0.00,,---,0.02,VWS V14.01,2013-04-24 17:39:00,
2013-04-24 12:44:00,53.1,48.1,30.14,NNE,29,11.0,12.0,83,0.00,,---,0.02,VWS V14.01,2013-04-24 17:44:00,
2013-04-24 12:49:00,53.1,48.4,30.14,North,355,0.0,3.0,84,0.00,,---,0.02,VWS V14.01,2013-04-24 17:49:00,
2013-04-24 12:54:00,53.0,48.3,30.14,NNW,330,0.0,9.0,84,0.00,,---,0.02,VWS V14.01,2013-04-24 17:54:00,
2013-04-24 12:59:00,52.8,47.8,30.14,NNW,337,1.0,4.0,83,0.00,,---,0.02,VWS V14.01,2013-04-24 17:59:00,
2013-04-24 13:04:00,52.7,47.7,30.14,North,355,9.0,9.0,83,0.00,,---,0.02,VWS V14.01,2013-04-24 18:04:00,
2013-04-24 13:09:00,52.7,47.7,30.14,NW,309,9.0,14.0,83,0.00,,---,0.02,VWS V14.01,2013-04-24 18:09:00,
2013-04-24 13:14:00,52.6,47.6,30.14,North,355,9.0,13.0,83,0.00,,---,0.02,VWS V14.01,2013-04-24 18:14:00,
2013-04-24 13:19:00,52.6,47.6,30.14,NNE,33,11.0,11.0,83,0.00,,---,0.02,VWS V14.01,2013-04-24 18:19:00,
2013-04-24 13:24:00,52.6,47.9,30.14,North,11,3.0,5.0,84,0.00,,---,0.02,VWS V14.01,2013-04-24 18:24:00,
2013-04-24 13:29:00,52.6,47.6,30.14,North,350,7.0,9.0,83,0.00,,---,0.02,VWS V14.01,2013-04-24 18:29:00,
2013-04-24 13:34:00,52.4,47.7,30.14,North,350,4.0,10.0,84,0.00,,---,0.02,VWS V14.01,2013-04-24 18:34:00,
2013-04-24 13:39:00,52.3,47.6,30.14,North,5,2.0,9.0,84,0.00,,---,0.02,VWS V14.01,2013-04-24 18:39:00,
2013-04-24 13:43:00,52.3,47.9,30.14,NNW,340,0.0,6.0,85,0.00,,---,0.02,VWS V14.01,2013-04-24 18:43:00,
2013-04-24 13:48:00,52.3,47.9,30.14,North,355,4.0,13.0,85,0.00,,---,0.02,VWS V14.01,2013-04-24 18:48:00,
2013-04-24 13:53:00,52.3,47.9,30.14,NNW,331,1.0,4.0,85,0.00,,---,0.02,VWS V14.01,2013-04-24 18:53:00,
2013-04-24 13:58:00,52.4,48.3,30.14,NW,314,3.0,11.0,86,0.00,,---,0.02,VWS V14.01,2013-04-24 18:58:00,
2013-04-24 14:03:00,52.3,47.9,30.13,NNW,336,6.0,11.0,85,0.00,,---,0.02,VWS V14.01,2013-04-24 19:03:00,
2013-04-24 14:08:00,52.3,48.2,30.14,North,351,5.0,11.0,86,0.00,,---,0.02,VWS V14.01,2013-04-24 19:08:00,
2013-04-24 14:13:00,52.4,48.0,30.14,NNW,341,6.0,9.0,85,0.00,,---,0.02,VWS V14.01,2013-04-24 19:13:00,
2013-04-24 14:18:00,52.5,48.1,30.14,NW,306,7.0,9.0,85,0.00,,---,0.02,VWS V14.01,2013-04-24 19:18:00,
2013-04-24 14:23:00,52.6,48.2,30.14,North,9,6.0,10.0,85,0.00,,---,0.02,VWS V14.01,2013-04-24 19:23:00,
2013-04-24 14:28:00,52.6,48.2,30.14,North,355,0.0,11.0,85,0.00,,---,0.02,VWS V14.01,2013-04-24 19:28:00,
2013-04-24 14:33:00,52.7,48.3,30.14,NW,325,10.0,10.0,85,0.00,,---,0.02,VWS V14.01,2013-04-24 19:33:00,
2013-04-24 14:38:00,52.8,48.4,30.14,NW,323,5.0,7.0,85,0.00,,---,0.02,VWS V14.01,2013-04-24 19:38:00,
2013-04-24 14:43:00,52.8,48.4,30.14,NNW,329,5.0,12.0,85,0.00,,---,0.02,VWS V14.01,2013-04-24 19:43:00,
2013-04-24 14:48:00,52.9,48.2,30.14,NNW,330,5.0,11.0,84,0.00,,---,0.02,VWS V14.01,2013-04-24 19:48:00,
2013-04-24 14:53:00,53.0,48.3,30.13,North,9,10.0,10.0,84,0.00,,---,0.02,VWS V14.01,2013-04-24 19:53:00,
2013-04-24 14:58:00,53.2,48.2,30.13,NNW,328,11.0,11.0,83,0.00,,---,0.02,VWS V14.01,2013-04-24 19:58:00,
2013-04-24 15:03:00,53.3,48.3,30.14,North,350,5.0,9.0,83,0.00,,---,0.02,VWS V14.01,2013-04-24 20:03:00,
2013-04-24 15:08:00,53.4,48.0,30.13,NNW,342,4.0,11.0,82,0.00,,---,0.02,VWS V14.01,2013-04-24 20:08:00,
2013-04-24 15:13:00,53.5,47.8,30.13,North,355,4.0,5.0,81,0.00,,---,0.02,VWS V14.01,2013-04-24 20:13:00,
2013-04-24 15:18:00,53.6,47.9,30.12,NNE,13,4.0,4.0,81,0.00,,---,0.02,VWS V14.01,2013-04-24 20:18:00,
2013-04-24 15:23:00,53.8,48.1,30.12,NNE,25,6.0,13.0,81,0.00,,---,0.02,VWS V14.01,2013-04-24 20:23:00,
2013-04-24 15:28:00,54.0,48.3,30.12,North,355,3.0,3.0,81,0.00,,---,0.02,VWS V14.01,2013-04-24 20:28:00,
2013-04-24 15:33:00,54.1,48.1,30.12,NNE,20,7.0,7.0,80,0.00,,---,0.02,VWS V14.01,2013-04-24 20:33:00,
2013-04-24 15:38:00,54.4,48.4,30.12,NNE,12,9.0,12.0,80,0.00,,---,0.02,VWS V14.01,2013-04-24 20:38:00,
2013-04-24 15:43:00,54.5,48.5,30.12,NW,306,4.0,4.0,80,0.00,,---,0.02,VWS V14.01,2013-04-24 20:43:00,
2013-04-24 15:48:00,54.6,48.6,30.12,NW,326,3.0,3.0,80,0.00,,---,0.02,VWS V14.01,2013-04-24 20:48:00,
2013-04-24 15:53:00,54.7,48.7,30.12,NNW,341,0.0,3.0,80,0.00,,---,0.02,VWS V14.01,2013-04-24 20:53:00,
2013-04-24 15:58:00,54.9,48.9,30.12,NW,325,6.0,6.0,80,0.00,,---,0.02,VWS V14.01,2013-04-24 20:58:00,
2013-04-24 16:03:00,55.0,48.6,30.12,NNW,336,5.0,10.0,79,0.00,,---,0.02,VWS V14.01,2013-04-24 21:03:00,
2013-04-24 16:08:00,55.2,48.8,30.11,North,355,1.0,1.0,79,0.00,,---,0.02,VWS V14.01,2013-04-24 21:08:00,
2013-04-24 16:13:00,55.5,48.8,30.11,North,360,3.0,4.0,78,0.00,,---,0.02,VWS V14.01,2013-04-24 21:13:00,
2013-04-24 16:18:00,55.8,48.7,30.11,NNE,15,7.0,7.0,77,0.00,,---,0.02,VWS V14.01,2013-04-24 21:18:00,
2013-04-24 16:23:00,56.0,48.5,30.11,North,360,3.0,5.0,76,0.00,,---,0.02,VWS V14.01,2013-04-24 21:23:00,
2013-04-24 16:28:00,56.3,48.8,30.10,North,5,6.0,9.0,76,0.00,,---,0.02,VWS V14.01,2013-04-24 21:28:00,
2013-04-24 16:33:00,56.4,48.2,30.10,North,355,3.0,3.0,74,0.00,,---,0.02,VWS V14.01,2013-04-24 21:33:00,
2013-04-24 16:38:00,56.6,48.8,30.09,North,360,3.0,5.0,75,0.00,,---,0.02,VWS V14.01,2013-04-24 21:38:00,
2013-04-24 16:43:00,56.8,49.0,30.09,North,360,1.0,6.0,75,0.00,,---,0.02,VWS V14.01,2013-04-24 21:43:00,
2013-04-24 16:48:00,56.8,48.6,30.09,NNE,28,6.0,11.0,74,0.00,,---,0.02,VWS V14.01,2013-04-24 21:48:00,
2013-04-24 16:53:00,56.9,48.7,30.09,NW,321,2.0,2.0,74,0.00,,---,0.02,VWS V14.01,2013-04-24 21:53:00,
2013-04-24 16:58:00,57.0,48.8,30.10,NNW,344,4.0,7.0,74,0.00,,---,0.02,VWS V14.01,2013-04-24 21:58:00,
2013-04-24 17:03:00,57.0,48.8,30.09,NW,319,5.0,7.0,74,0.00,,---,0.02,VWS V14.01,2013-04-24 22:03:00,
2013-04-24 17:08:00,57.1,48.5,30.09,NW,325,6.0,6.0,73,0.00,,---,0.02,VWS V14.01,2013-04-24 22:08:00,
2013-04-24 17:13:00,57.1,48.5,30.09,North,355,3.0,7.0,73,0.00,,---,0.02,VWS V14.01,2013-04-24 22:13:00,
2013-04-24 17:18:00,57.3,48.7,30.08,North,360,7.0,7.0,73,0.00,,---,0.02,VWS V14.01,2013-04-24 22:18:00,
2013-04-24 17:23:00,57.6,48.7,30.08,North,355,2.0,10.0,72,0.00,,---,0.02,VWS V14.01,2013-04-24 22:23:00,
2013-04-24 17:28:00,58.0,49.0,30.08,NW,322,4.0,12.0,72,0.00,,---,0.02,VWS V14.01,2013-04-24 22:28:00,
2013-04-24 17:33:00,58.3,49.3,30.08,NNW,332,0.0,6.0,72,0.00,,---,0.02,VWS V14.01,2013-04-24 22:33:00,
2013-04-24 17:38:00,58.6,49.2,30.08,North,349,2.0,9.0,71,0.00,,---,0.02,VWS V14.01,2013-04-24 22:38:00,
2013-04-24 17:43:00,58.6,49.2,30.08,NW,317,6.0,10.0,71,0.00,,---,0.02,VWS V14.01,2013-04-24 22:43:00,
2013-04-24 17:48:00,58.5,48.8,30.08,NW,318,7.0,10.0,70,0.00,,---,0.02,VWS V14.01,2013-04-24 22:48:00,
2013-04-24 17:53:00,58.5,49.1,30.08,North,355,0.0,3.0,71,0.00,,---,0.02,VWS V14.01,2013-04-24 22:53:00,
2013-04-24 17:58:00,58.5,49.1,30.08,North,355,7.0,7.0,71,0.00,,---,0.02,VWS V14.01,2013-04-24 22:58:00,
2013-04-24 18:03:00,58.5,49.1,30.08,North,5,1.0,7.0,71,0.00,,---,0.02,VWS V14.01,2013-04-24 23:03:00,
2013-04-24 18:08:00,58.6,49.2,30.09,North,5,1.0,5.0,71,0.00,,---,0.02,VWS V14.01,2013-04-24 23:08:00,
2013-04-24 18:13:00,58.6,49.2,30.09,NNW,340,0.0,5.0,71,0.00,,---,0.02,VWS V14.01,2013-04-24 23:13:00,
2013-04-24 18:18:00,58.7,49.3,30.09,NNW,333,3.0,3.0,71,0.00,,---,0.02,VWS V14.01,2013-04-24 23:18:00,
2013-04-24 18:23:00,58.7,49.3,30.09,North,355,1.0,1.0,71,0.00,,---,0.02,VWS V14.01,2013-04-24 23:23:00,
2013-04-24 18:28:00,58.8,49.4,30.09,North,355,0.0,1.0,71,0.00,,---,0.02,VWS V14.01,2013-04-24 23:28:00,
2013-04-24 18:33:00,58.8,49.4,30.10,NNW,340,0.0,1.0,71,0.00,,---,0.02,VWS V14.01,2013-04-24 23:33:00,
2013-04-24 18:38:00,58.9,49.5,30.09,North,355,3.0,5.0,71,0.00,,---,0.02,VWS V14.01,2013-04-24 23:38:00,
2013-04-24 18:43:00,59.0,49.2,30.10,North,5,0.0,1.0,70,0.00,,---,0.02,VWS V14.01,2013-04-24 23:43:00,
2013-04-24 18:48:00,59.1,49.3,30.10,NNE,24,1.0,1.0,70,0.00,,---,0.02,VWS V14.01,2013-04-24 23:48:00,
2013-04-24 18:53:00,59.2,49.4,30.10,NNE,26,1.0,4.0,70,0.00,,---,0.02,VWS V14.01,2013-04-24 23:53:00,
2013-04-24 18:58:00,59.3,49.5,30.10,North,9,0.0,0.0,70,0.00,,---,0.02,VWS V14.01,2013-04-24 23:58:00,
2013-04-24 19:03:00,59.4,49.6,30.10,North,9,0.0,0.0,70,0.00,,---,0.02,VWS V14.01,2013-04-25 00:03:00,
2013-04-24 19:08:00,59.5,49.7,30.10,NNE,15,0.0,1.0,70,0.00,,---,0.02,VWS V14.01,2013-04-25 00:08:00,
2013-04-24 19:13:00,59.6,49.8,30.10,NNW,346,5.0,5.0,70,0.00,,---,0.02,VWS V14.01,2013-04-25 00:13:00,
2013-04-24 19:18:00,59.6,49.8,30.10,North,360,0.0,4.0,70,0.00,,---,0.02,VWS V14.01,2013-04-25 00:18:00,
2013-04-24 19:23:00,59.8,50.0,30.10,NNE,24,1.0,2.0,70,0.00,,---,0.02,VWS V14.01,2013-04-25 00:23:00,
2013-04-24 19:28:00,59.8,50.0,30.11,NNE,30,3.0,5.0,70,0.00,,---,0.02,VWS V14.01,2013-04-25 00:28:00,
2013-04-24 19:33:00,59.9,50.1,30.10,North,5,4.0,4.0,70,0.00,,---,0.02,VWS V14.01,2013-04-25 00:33:00,
2013-04-24 19:37:00,60.0,50.2,30.10,North,351,2.0,7.0,70,0.00,,---,0.02,VWS V14.01,2013-04-25 00:37:00,
2013-04-24 19:42:00,60.1,49.9,30.10,North,360,4.0,9.0,69,0.00,,---,0.02,VWS V14.01,2013-04-25 00:42:00,
2013-04-24 19:47:00,60.2,50.4,30.11,North,349,2.0,3.0,70,0.00,,---,0.02,VWS V14.01,2013-04-25 00:47:00,
2013-04-24 19:52:00,60.3,50.5,30.11,North,355,3.0,4.0,70,0.00,,---,0.02,VWS V14.01,2013-04-25 00:52:00,
2013-04-24 19:57:00,60.3,50.5,30.11,NNE,18,4.0,5.0,70,0.00,,---,0.02,VWS V14.01,2013-04-25 00:57:00,
2013-04-24 20:02:00,60.4,50.6,30.11,NNE,21,0.0,4.0,70,0.00,,---,0.02,VWS V14.01,2013-04-25 01:02:00,
2013-04-24 20:07:00,60.5,51.1,30.11,NNE,17,3.0,6.0,71,0.00,,---,0.02,VWS V14.01,2013-04-25 01:07:00,
2013-04-24 20:12:00,60.6,51.2,30.11,NE,45,6.0,6.0,71,0.00,,---,0.02,VWS V14.01,2013-04-25 01:12:00,
2013-04-24 20:17:00,60.7,51.2,30.11,NNE,25,7.0,8.0,71,0.00,,---,0.02,VWS V14.01,2013-04-25 01:17:00,
2013-04-24 20:22:00,60.8,51.3,30.11,ENE,73,12.0,16.0,71,0.00,,---,0.02,VWS V14.01,2013-04-25 01:22:00,
2013-04-24 20:27:00,61.0,51.5,30.11,NNE,25,11.0,11.0,71,0.00,,---,0.02,VWS V14.01,2013-04-25 01:27:00,
2013-04-24 20:32:00,61.2,51.3,30.11,NNE,18,2.0,12.0,70,0.00,,---,0.02,VWS V14.01,2013-04-25 01:32:00,
2013-04-24 20:37:00,61.3,51.8,30.11,ESE,107,2.0,2.0,71,0.00,,---,0.02,VWS V14.01,2013-04-25 01:37:00,
2013-04-24 20:42:00,61.3,51.8,30.11,ENE,59,0.0,2.0,71,0.00,,---,0.02,VWS V14.01,2013-04-25 01:42:00,
2013-04-24 20:47:00,61.3,51.8,30.12,NE,53,6.0,12.0,71,0.00,,---,0.02,VWS V14.01,2013-04-25 01:47:00,
2013-04-24 20:52:00,61.3,52.2,30.12,ENE,67,3.0,6.0,72,0.00,,---,0.02,VWS V14.01,2013-04-25 01:52:00,
2013-04-24 20:57:00,61.3,52.6,30.12,NNE,25,5.0,5.0,73,0.00,,---,0.02,VWS V14.01,2013-04-25 01:57:00,
2013-04-24 21:02:00,61.3,52.6,30.12,North,5,0.0,1.0,73,0.00,,---,0.02,VWS V14.01,2013-04-25 02:02:00,
2013-04-24 21:07:00,61.2,52.9,30.13,NE,37,3.0,3.0,74,0.00,,---,0.02,VWS V14.01,2013-04-25 02:07:00,
2013-04-24 21:12:00,61.3,53.0,30.13,North,5,5.0,5.0,74,0.00,,---,0.02,VWS V14.01,2013-04-25 02:12:00,
2013-04-24 21:17:00,61.4,53.0,30.13,WSW,254,0.0,1.0,74,0.00,,---,0.02,VWS V14.01,2013-04-25 02:17:00,
2013-04-24 21:22:00,61.5,53.2,30.13,ENE,65,2.0,5.0,74,0.00,,---,0.02,VWS V14.01,2013-04-25 02:22:00,
2013-04-24 21:27:00,61.7,53.3,30.13,NNE,21,3.0,9.0,74,0.00,,---,0.02,VWS V14.01,2013-04-25 02:27:00,
2013-04-24 21:32:00,61.8,53.1,30.14,NNE,24,4.0,5.0,73,0.00,,---,0.02,VWS V14.01,2013-04-25 02:32:00,
2013-04-24 21:37:00,62.0,52.9,30.14,NE,45,4.0,6.0,72,0.00,,---,0.02,VWS V14.01,2013-04-25 02:37:00,
2013-04-24 21:42:00,62.1,53.0,30.14,NNE,14,2.0,5.0,72,0.00,,---,0.02,VWS V14.01,2013-04-25 02:42:00,
2013-04-24 21:47:00,62.3,53.2,30.14,NNE,29,5.0,7.0,72,0.00,,---,0.02,VWS V14.01,2013-04-25 02:47:00,
2013-04-24 21:52:00,62.4,53.3,30.14,NNE,17,4.0,5.0,72,0.00,,---,0.02,VWS V14.01,2013-04-25 02:52:00,
2013-04-24 21:57:00,62.5,53.0,30.14,ENE,60,0.0,1.0,71,0.00,,---,0.02,VWS V14.01,2013-04-25 02:57:00,
2013-04-24 22:02:00,62.5,53.0,30.14,NE,44,6.0,6.0,71,0.00,,---,0.02,VWS V14.01,2013-04-25 03:02:00,
2013-04-24 22:07:00,62.5,52.6,30.14,NE,36,4.0,4.0,70,0.00,,---,0.02,VWS V14.01,2013-04-25 03:07:00,
2013-04-24 22:12:00,62.5,53.0,30.14,NNE,31,2.0,2.0,71,0.00,,---,0.02,VWS V14.01,2013-04-25 03:12:00,
2013-04-24 22:17:00,62.6,53.1,30.14,NE,38,3.0,3.0,71,0.00,,---,0.02,VWS V14.01,2013-04-25 03:17:00,
2013-04-24 22:22:00,62.7,53.5,30.14,North,5,4.0,4.0,72,0.00,,---,0.02,VWS V14.01,2013-04-25 03:22:00,
2013-04-24 22:27:00,62.7,53.5,30.14,North,11,2.0,3.0,72,0.00,,---,0.02,VWS V14.01,2013-04-25 03:27:00,
2013-04-24 22:32:00,62.8,53.7,30.14,NNE,27,2.0,3.0,72,0.00,,---,0.02,VWS V14.01,2013-04-25 03:32:00,
2013-04-24 22:37:00,62.9,53.8,30.15,NNE,24,4.0,5.0,72,0.00,,---,0.02,VWS V14.01,2013-04-25 03:37:00,
2013-04-24 22:42:00,63.0,53.5,30.15,NNE,25,4.0,4.0,71,0.00,,---,0.02,VWS V14.01,2013-04-25 03:42:00,
2013-04-24 22:47:00,63.1,53.9,30.15,North,360,1.0,4.0,72,0.00,,---,0.02,VWS V14.01,2013-04-25 03:47:00,
2013-04-24 22:52:00,63.1,53.9,30.15,North,360,1.0,3.0,72,0.00,,---,0.02,VWS V14.01,2013-04-25 03:52:00,
2013-04-24 22:57:00,63.1,53.9,30.15,NNW,340,2.0,2.0,72,0.00,,---,0.02,VWS V14.01,2013-04-25 03:57:00,
2013-04-24 23:01:00,63.2,54.0,30.15,NNW,344,1.0,1.0,72,0.00,,---,0.02,VWS V14.01,2013-04-25 04:01:00,
2013-04-24 23:06:00,63.1,53.9,30.16,NW,321,0.0,2.0,72,0.00,,---,0.02,VWS V14.01,2013-04-25 04:06:00,
2013-04-24 23:11:00,63.1,53.9,30.16,NW,321,0.0,1.0,72,0.00,,---,0.02,VWS V14.01,2013-04-25 04:11:00,
2013-04-24 23:16:00,63.0,53.8,30.16,NW,321,1.0,2.0,72,0.00,,---,0.02,VWS V14.01,2013-04-25 04:16:00,
2013-04-24 23:21:00,62.9,53.8,30.16,NW,321,1.0,1.0,72,0.00,,---,0.02,VWS V14.01,2013-04-25 04:21:00,
2013-04-24 23:26:00,62.7,53.5,30.16,NW,321,0.0,0.0,72,0.00,,---,0.02,VWS V14.01,2013-04-25 04:26:00,
2013-04-24 23:31:00,62.6,53.5,30.16,NW,321,0.0,1.0,72,0.00,,---,0.02,VWS V14.01,2013-04-25 04:31:00,
2013-04-24 23:36:00,62.5,53.4,30.16,NW,314,2.0,4.0,72,0.00,,---,0.02,VWS V14.01,2013-04-25 04:36:00,
2013-04-24 23:41:00,62.3,53.2,30.16,NW,316,5.0,5.0,72,0.00,,---,0.02,VWS V14.01,2013-04-25 04:41:00,
2013-04-24 23:46:00,62.3,53.5,30.16,NW,319,2.0,2.0,73,0.00,,---,0.02,VWS V14.01,2013-04-25 04:46:00,
2013-04-24 23:51:00,62.3,53.5,30.16,NW,322,3.0,3.0,73,0.00,,---,0.02,VWS V14.01,2013-04-25 04:51:00,
2013-04-24 23:56:00,62.2,53.5,30.16,WNW,299,1.0,2.0,73,0.00,,---,0.02,VWS V14.01,2013-04-25 04:56:00,